Provisional Data: Susquehanna River near Binghamton, NY


Please select a monitoring station.
Please select start date.
Please select start date.

Toggle Unit: C/F Toggle Unit: C/F
Sample Time Temperature (C) Temperature (F) Specific Conductivity (mS/cm) pH   Turbidity (NTU+) DO (mg/L)
6/29/2021 12:00:00 AM 7.1589 5.8824
6/29/2021 12:15:00 AM 7.1513 5.8388
6/29/2021 12:30:00 AM 7.1415 5.7225
6/29/2021 12:45:00 AM 7.1311 6.048
6/29/2021 1:00:00 AM 7.1201 5.9493
6/29/2021 1:15:00 AM 7.1101 5.9975
6/29/2021 1:30:00 AM 7.0996 6.1578
6/29/2021 1:45:00 AM 7.0892 6.1947
6/29/2021 2:00:00 AM 7.0798 6.2333
6/29/2021 2:15:00 AM 7.0666 6.2338
6/29/2021 2:30:00 AM 7.0531 6.0554
6/29/2021 2:45:00 AM 7.0518 6.0999
6/29/2021 3:00:00 AM 7.0351 6.1839
6/29/2021 3:15:00 AM 7.0139 6.7103
6/29/2021 3:30:00 AM 7.008 6.5599
6/29/2021 3:45:00 AM 7.0023 7.2997
6/29/2021 4:00:00 AM 6.9932 6.3078
6/29/2021 4:15:00 AM 6.9864 5.7772
6/29/2021 4:30:00 AM 6.979 5.7276
6/29/2021 4:45:00 AM 6.9698 5.6729
6/29/2021 5:00:00 AM 6.958 5.7618
6/29/2021 5:15:00 AM 6.9457 5.6938
6/29/2021 5:30:00 AM 6.9328 5.4539
6/29/2021 5:45:00 AM 6.9286 5.3
6/29/2021 6:00:00 AM 6.9071 5.1028
6/29/2021 6:15:00 AM 6.8989 4.9868
6/29/2021 6:30:00 AM 6.8885 4.6855
6/29/2021 6:45:00 AM 6.8777 4.5856
6/29/2021 7:00:00 AM 6.8655 4.456
6/29/2021 7:15:00 AM 6.8567 4.4563
6/29/2021 7:30:00 AM 6.8478 4.4701
6/29/2021 7:45:00 AM 6.8418 4.4288
6/29/2021 8:00:00 AM 6.8403 4.376
6/29/2021 8:15:00 AM 6.8422 4.3535
6/29/2021 8:30:00 AM 6.8454 4.2665
6/29/2021 8:45:00 AM 6.8446 4.4
6/29/2021 9:00:00 AM 6.8396 4.4661
6/29/2021 9:15:00 AM 6.8398 5.2168
6/29/2021 9:30:00 AM 6.8467 5.0164
6/29/2021 9:45:00 AM 6.8408 4.6183
6/29/2021 10:00:00 AM 6.839 4.2958
6/29/2021 10:15:00 AM 6.8363 4.4295
6/29/2021 10:30:00 AM 6.8354 4.5149
6/29/2021 10:45:00 AM 6.8354 4.3658
6/29/2021 11:00:00 AM 6.8419 3.9924
6/29/2021 11:15:00 AM 6.8479 4.0174
6/29/2021 11:30:00 AM 6.8567 3.8499
6/29/2021 11:45:00 AM 6.8614 3.8002
6/29/2021 12:00:00 PM 6.8753 4.7959
6/29/2021 12:15:00 PM 6.8824 5.2116
6/29/2021 12:30:00 PM 6.8945 4.498
6/29/2021 12:45:00 PM 6.9126 4.2886
6/29/2021 1:00:00 PM 6.9268 4.1952
6/29/2021 1:15:00 PM 6.9374 3.9492
6/29/2021 1:30:00 PM 6.9436 3.8778
6/29/2021 1:45:00 PM 6.954 3.7623
6/29/2021 2:00:00 PM 6.9665 3.7068
6/29/2021 2:15:00 PM 6.9758 3.7165
6/29/2021 2:30:00 PM 6.9848 3.785
6/29/2021 2:45:00 PM 6.9953 4.1757
6/29/2021 3:00:00 PM 7.0084 3.946
6/29/2021 3:15:00 PM 7.0249 4.0867
6/29/2021 3:30:00 PM 7.043 4.1872
6/29/2021 3:45:00 PM 7.0632 3.9902
6/29/2021 4:00:00 PM 7.0754 4.1548
6/29/2021 4:15:00 PM 7.0864 4.7554
6/29/2021 4:30:00 PM 7.0722 7.9847
6/29/2021 4:45:00 PM 7.1105 6.1111
6/29/2021 5:00:00 PM 7.1314 5.0787
6/29/2021 5:15:00 PM 7.1555 4.9177
6/29/2021 5:30:00 PM 7.1722 4.8224
6/29/2021 5:45:00 PM 7.1778 5
6/29/2021 6:00:00 PM 7.2112 4.7771
6/29/2021 6:15:00 PM 7.2218 4.5323
6/29/2021 6:30:00 PM 7.2252 4.3648
6/29/2021 6:45:00 PM 7.2328 4.3656
6/29/2021 7:00:00 PM 7.2362 4.1217
6/29/2021 7:15:00 PM 7.2397 4.311
6/29/2021 7:30:00 PM 7.2405 4.1703
6/29/2021 7:45:00 PM 7.2368 4.4537
6/29/2021 8:00:00 PM 7.2351 5.286
6/29/2021 8:15:00 PM 7.2312 10.1107
6/29/2021 8:30:00 PM 7.2277 7.3216
6/29/2021 8:45:00 PM 7.2268 6.6
6/29/2021 9:00:00 PM 7.2133 5.9596
6/29/2021 9:15:00 PM 7.2101 5.9563
6/29/2021 9:30:00 PM 7.1978 5.789
6/29/2021 9:45:00 PM 7.183 6.0713
6/29/2021 10:00:00 PM 7.174 5.952
6/29/2021 10:15:00 PM 7.1665 6.3371
6/29/2021 10:30:00 PM 7.1577 6.1878
6/29/2021 10:45:00 PM 7.1474 6.4301
6/29/2021 11:00:00 PM 7.1338 6.8102
6/29/2021 11:15:00 PM 7.1194 7.9592
6/29/2021 11:30:00 PM 7.1068 8.1979
6/29/2021 11:45:00 PM 7.098 7.6
6/30/2021 12:00:00 AM 7.0962 6.5522
6/30/2021 12:15:00 AM 7.091 6.4925
6/30/2021 12:30:00 AM 7.083 6.373
6/30/2021 12:45:00 AM 7.075 6.4668
6/30/2021 1:00:00 AM 7.0679 6.1912
6/30/2021 1:15:00 AM 7.0613 6.403
6/30/2021 1:30:00 AM 7.0513 6.1615
6/30/2021 1:45:00 AM 7.0429 6.4116
6/30/2021 2:00:00 AM 7.0364 6.1992
6/30/2021 2:15:00 AM 7.0282 6.8175
6/30/2021 2:30:00 AM 7.0228 6.5951
6/30/2021 2:45:00 AM 7.0154 6.2
6/30/2021 3:00:00 AM 7.0055 6.6233
6/30/2021 3:15:00 AM 6.9937 7.2029
6/30/2021 3:30:00 AM 6.984 6.427
6/30/2021 3:45:00 AM 6.9769 6.6401
6/30/2021 4:00:00 AM 6.9648 6.3573
6/30/2021 4:15:00 AM 6.9548 6.7457
6/30/2021 4:30:00 AM 6.9449 6.8168
6/30/2021 4:45:00 AM 6.9357 7.1605
6/30/2021 5:00:00 AM 6.9257 7.0233
6/30/2021 5:15:00 AM 6.9054 7.3124
6/30/2021 5:30:00 AM 6.9009 5.6616
6/30/2021 5:45:00 AM 6.8978 5.2
6/30/2021 6:00:00 AM 6.883 4.9058
6/30/2021 6:15:00 AM 6.8722 5.0287
6/30/2021 6:30:00 AM 6.8605 4.7705
6/30/2021 6:45:00 AM 6.8498 4.7434
6/30/2021 7:00:00 AM 6.8403 4.6096
6/30/2021 7:15:00 AM 6.8303 4.8521
6/30/2021 7:30:00 AM 6.822 4.8699
6/30/2021 7:45:00 AM 6.8137 5.2383
6/30/2021 8:00:00 AM 6.8072 4.7107
6/30/2021 8:15:00 AM 6.8024 4.7454
6/30/2021 8:30:00 AM 6.7982 4.7854
6/30/2021 8:45:00 AM 6.797 4.8
6/30/2021 9:00:00 AM 6.7947 4.1226
6/30/2021 9:15:00 AM 6.799 4.7182
6/30/2021 9:30:00 AM 6.8102 4.436
6/30/2021 9:45:00 AM 6.8059 4.184
6/30/2021 10:00:00 AM 6.8046 3.9531
6/30/2021 10:15:00 AM 6.8083 4.0506
6/30/2021 10:30:00 AM 6.8151 4.2124
6/30/2021 10:45:00 AM 6.82 4.3213
6/30/2021 11:00:00 AM 6.8292 4.0545
6/30/2021 11:15:00 AM 6.837 4.1489
6/30/2021 11:30:00 AM 6.8446 4.6044
6/30/2021 11:45:00 AM 6.8474 4.7001
6/30/2021 12:00:00 PM 6.8698 4.5698
6/30/2021 12:15:00 PM 6.8819 4.2653
6/30/2021 12:30:00 PM 6.8892 4.0446
6/30/2021 12:45:00 PM 6.899 4.1201
6/30/2021 1:00:00 PM 6.9202 4.301
6/30/2021 1:15:00 PM 6.9358 4.7806
6/30/2021 1:30:00 PM 6.9469 4.4977
6/30/2021 1:45:00 PM 6.9615 4.4171
6/30/2021 2:00:00 PM 6.9765 4.1829
6/30/2021 2:15:00 PM 6.9863 4.1605
6/30/2021 2:30:00 PM 6.9952 3.9529
6/30/2021 2:45:00 PM 7.011 4.0295
6/30/2021 3:00:00 PM 7.0225 3.9123
6/30/2021 3:15:00 PM 7.0345 4.031
6/30/2021 3:30:00 PM 7.0478 4.0221
6/30/2021 3:45:00 PM 7.0667 4.0988
6/30/2021 4:00:00 PM 7.0835 4.0313
6/30/2021 4:15:00 PM 7.0991 4.3334
6/30/2021 4:30:00 PM 7.1152 5.844
6/30/2021 4:45:00 PM 7.1152 6.8653
6/30/2021 5:00:00 PM 7.1151 24.2054
6/30/2021 5:15:00 PM 7.0989 13.8883
6/30/2021 5:30:00 PM 7.0878 11.3559
6/30/2021 5:45:00 PM 7.0854 8
6/30/2021 6:00:00 PM 7.0826 5.2404
6/30/2021 6:15:00 PM 7.0848 5.3537
6/30/2021 6:30:00 PM 7.0902 6.73
6/30/2021 6:45:00 PM 7.0988 8.1706
6/30/2021 7:00:00 PM 7.0997 8.4466
6/30/2021 7:15:00 PM 7.0913 8.6564
6/30/2021 7:30:00 PM 7.0824 8.77
6/30/2021 7:45:00 PM 7.0682 9.5196
6/30/2021 8:00:00 PM 7.0542 10.2404
6/30/2021 8:15:00 PM 7.0439 12.3664
6/30/2021 8:30:00 PM 7.042 16.0053
6/30/2021 8:45:00 PM 7.042 17.6
6/30/2021 9:00:00 PM 7.0373 16.5192
6/30/2021 9:15:00 PM 7.0364 15.9968
6/30/2021 9:30:00 PM 7.033 14.9585
6/30/2021 9:45:00 PM 6.9948 15.1934
6/30/2021 10:00:00 PM 7.0117 15.5755
6/30/2021 10:15:00 PM 7.0229 14.9094
6/30/2021 10:30:00 PM 7.022 13.8465
6/30/2021 10:45:00 PM 7.018 13.2757
6/30/2021 11:00:00 PM 7.0156 12.5438
6/30/2021 11:15:00 PM 7.0103 12.5861
6/30/2021 11:30:00 PM 6.9995 14.0582
6/30/2021 11:45:00 PM 6.9944 16
7/1/2021 12:00:00 AM 6.9753 19.0323
7/1/2021 12:15:00 AM 6.9657 33.7218
7/1/2021 12:30:00 AM 6.9502 20.1287
7/1/2021 12:45:00 AM 6.9356 19.727
7/1/2021 1:00:00 AM 6.9279 19.054
7/1/2021 1:15:00 AM 6.9236 19.4322
7/1/2021 1:30:00 AM 6.9168 18.1667
7/1/2021 1:45:00 AM 6.9052 18.6854
7/1/2021 2:00:00 AM 6.8946 23.2149
7/1/2021 2:15:00 AM 6.8843 26.599
7/1/2021 2:30:00 AM 6.8736 26.7874
7/1/2021 2:45:00 AM 6.8712 26.7
7/1/2021 3:00:00 AM 6.8531 25.3516
7/1/2021 3:15:00 AM 6.8444 24.8142
7/1/2021 3:30:00 AM 6.8313 25.3937
7/1/2021 3:45:00 AM 6.8194 28.1071
7/1/2021 4:00:00 AM 6.8091 30.4347
7/1/2021 4:15:00 AM 6.7984 32.1443
7/1/2021 4:30:00 AM 6.7876 33.9828
7/1/2021 4:45:00 AM 6.7793 34.0462
7/1/2021 5:00:00 AM 6.7711 33.7239
7/1/2021 5:15:00 AM 6.7618 33.7076
7/1/2021 5:30:00 AM 6.7493 31.4352
7/1/2021 5:45:00 AM 6.7438 30.1
7/1/2021 6:00:00 AM 6.735 30.9449
7/1/2021 6:15:00 AM 6.7322 31.7643
7/1/2021 6:30:00 AM 6.7263 30.282
7/1/2021 6:45:00 AM 6.7191 29.8212
7/1/2021 7:00:00 AM 6.7129 29.5866
7/1/2021 7:15:00 AM 6.7071 28.8899
7/1/2021 7:30:00 AM 6.6991 28.0473
7/1/2021 7:45:00 AM 6.6915 27.7561
7/1/2021 8:00:00 AM 6.6876 31.138
7/1/2021 8:15:00 AM 6.6767 38.5982
7/1/2021 8:30:00 AM 6.6745 26.6813
7/1/2021 8:45:00 AM 6.6766 23
7/1/2021 9:00:00 AM 6.6754 18.7455
7/1/2021 9:15:00 AM 6.6752 19.8514
7/1/2021 9:30:00 AM 6.6745 19.3457
7/1/2021 9:45:00 AM 6.6758 15.7293
7/1/2021 10:00:00 AM 6.679 13.5592
7/1/2021 10:15:00 AM 6.6811 12.3458
7/1/2021 10:30:00 AM 6.6854 10.9369
7/1/2021 10:45:00 AM 6.69 10.8598
7/1/2021 11:00:00 AM 6.6951 11.0308
7/1/2021 11:15:00 AM 6.7003 10.6122
7/1/2021 11:30:00 AM 6.7033 10.4312
7/1/2021 11:45:00 AM 6.7018 10.4
7/1/2021 12:00:00 PM 6.7046 10.6724
7/1/2021 12:15:00 PM 6.7092 11.0099
7/1/2021 12:30:00 PM 6.7128 10.7951
7/1/2021 12:45:00 PM 6.7141 9.4335
7/1/2021 1:00:00 PM 6.7146 8.1923
7/1/2021 1:15:00 PM 6.7166 8.0476
7/1/2021 1:30:00 PM 6.7192 7.8505
7/1/2021 1:45:00 PM 6.7218 7.2679
7/1/2021 2:00:00 PM 6.7231 7.1495
7/1/2021 2:15:00 PM 6.7292 8.237
7/1/2021 2:30:00 PM 6.7387 7.6515
7/1/2021 2:45:00 PM 6.7444 7.2037
7/1/2021 3:00:00 PM 6.7428 7.2813
7/1/2021 3:15:00 PM 6.7434 7.2809
7/1/2021 3:30:00 PM 6.7448 7.5887
7/1/2021 3:45:00 PM 6.7475 7.9225
7/1/2021 4:00:00 PM 6.7422 15.1364
7/1/2021 4:15:00 PM 6.7451 11.7146
7/1/2021 4:30:00 PM 6.7581 7.1891
7/1/2021 4:45:00 PM 6.7645 6.749
7/1/2021 5:00:00 PM 6.7667 6.7352
7/1/2021 5:15:00 PM 6.7673 6.5323
7/1/2021 5:30:00 PM 6.7689 6.376
7/1/2021 5:45:00 PM 6.769 6.2
7/1/2021 6:00:00 PM 6.7808 6.4309
7/1/2021 6:15:00 PM 6.7861 6.4401
7/1/2021 6:30:00 PM 6.7911 6.3012
7/1/2021 6:45:00 PM 6.7977 6.2019
7/1/2021 7:00:00 PM 6.8048 6.1199
7/1/2021 7:15:00 PM 6.8106 6.1612
7/1/2021 7:30:00 PM 6.8163 6.2472
7/1/2021 7:45:00 PM 6.8207 6.1227
7/1/2021 8:00:00 PM 6.8205 6.2008
7/1/2021 8:15:00 PM 6.8267 6.0629
7/1/2021 8:30:00 PM 6.8352 6.1116
7/1/2021 8:45:00 PM 6.8404 6.2
7/1/2021 9:00:00 PM 6.8399 6.6572
7/1/2021 9:15:00 PM 6.8423 6.9183
7/1/2021 9:30:00 PM 6.8419 8.225
7/1/2021 9:45:00 PM 6.8267 12.4393
7/1/2021 10:00:00 PM 6.8521 9.5245
7/1/2021 10:15:00 PM 6.8611 8.8831
7/1/2021 10:30:00 PM 6.8623 8.5839
7/1/2021 10:45:00 PM 6.8697 8.3701
7/1/2021 11:00:00 PM 6.871 8.0799
7/1/2021 11:15:00 PM 6.8668 8.3791
7/1/2021 11:30:00 PM 6.8671 8.2294
7/1/2021 11:45:00 PM 6.8698 7.9
7/2/2021 12:00:00 AM 6.8738 7.6778
7/2/2021 12:15:00 AM 6.8737 7.593
7/2/2021 12:30:00 AM 6.8755 7.5061
7/2/2021 12:45:00 AM 6.8727 7.659
7/2/2021 1:00:00 AM 6.8713 7.5582
7/2/2021 1:15:00 AM 6.8687 7.3671
7/2/2021 1:30:00 AM 6.8684 7.8657
7/2/2021 1:45:00 AM 6.8655 7.4532
7/2/2021 2:00:00 AM 6.8621 7.2791
7/2/2021 2:15:00 AM 6.8582 8.429
7/2/2021 2:30:00 AM 6.8535 10.3266
7/2/2021 2:45:00 AM 6.8474 10.0001
7/2/2021 3:00:00 AM 6.8434 7.4396
7/2/2021 3:15:00 AM 6.8373 7.4612
7/2/2021 3:30:00 AM 6.8323 7.4883
7/2/2021 3:45:00 AM 6.8302 7.2685
7/2/2021 4:00:00 AM 6.8101 7.5082
7/2/2021 4:15:00 AM 6.8043 6.3439
7/2/2021 4:30:00 AM 6.8023 6.4291
7/2/2021 4:45:00 AM 6.7975 6.4135
7/2/2021 5:00:00 AM 6.7938 6.3611
7/2/2021 5:15:00 AM 6.7875 7.0307
7/2/2021 5:30:00 AM 6.782 6.7116
7/2/2021 5:45:00 AM 6.7746 6.6
7/2/2021 6:00:00 AM 6.7684 7.2142
7/2/2021 6:15:00 AM 6.7649 7.3747
7/2/2021 6:30:00 AM 6.7605 7.6784
7/2/2021 6:45:00 AM 6.7534 6.5187
7/2/2021 7:00:00 AM 6.7528 7.0108
7/2/2021 7:15:00 AM 6.7526 9.1193
7/2/2021 7:30:00 AM 6.7532 8.7191
7/2/2021 7:45:00 AM 6.7524 9.8394
7/2/2021 8:00:00 AM 6.7494 9.1572
7/2/2021 8:15:00 AM 6.7492 8.6151
7/2/2021 8:30:00 AM 6.7485 10.4006
7/2/2021 8:45:00 AM 6.7522 7.9
7/2/2021 9:00:00 AM 6.7525 8.5273
7/2/2021 9:15:00 AM 6.7529 6.1322
7/2/2021 9:30:00 AM 6.7545 5.4974
7/2/2021 9:45:00 AM 6.7583 5.4102
7/2/2021 10:00:00 AM 6.7624 5.4219
7/2/2021 10:15:00 AM 6.7678 5.1286
7/2/2021 10:30:00 AM 6.769 5.0291
7/2/2021 10:45:00 AM 6.77 4.988
7/2/2021 11:00:00 AM 6.7717 5.0137
7/2/2021 11:15:00 AM 6.7738 4.9803
7/2/2021 11:30:00 AM 6.7768 4.8742
7/2/2021 11:45:00 AM 6.7788 4.9
7/2/2021 12:00:00 PM 6.7837 5.1358
7/2/2021 12:15:00 PM 6.7891 6.0955
7/2/2021 12:30:00 PM 6.7972 5.2458
7/2/2021 12:45:00 PM 6.8045 5.6447
7/2/2021 1:00:00 PM 6.8117 5.6393
7/2/2021 1:15:00 PM 6.8212 5.1289
7/2/2021 1:30:00 PM 6.8314 5.0278
7/2/2021 1:45:00 PM 6.8402 5.2053
7/2/2021 2:00:00 PM 6.8533 5.6589
7/2/2021 2:15:00 PM 6.8663 5.1972
7/2/2021 2:30:00 PM 6.8745 4.8459
7/2/2021 2:45:00 PM 6.8843 5.0444
7/2/2021 3:00:00 PM 6.8987 5.9929
7/2/2021 3:15:00 PM 6.9141 5.3616
7/2/2021 3:30:00 PM 6.931 5.5294
7/2/2021 3:45:00 PM 6.9469 4.9985
7/2/2021 4:00:00 PM 6.9604 4.7351
7/2/2021 4:15:00 PM 6.969 4.7478
7/2/2021 4:30:00 PM 6.9844 4.7984
7/2/2021 4:45:00 PM 7.0005 4.9731
7/2/2021 5:00:00 PM 7.0205 5.0544
7/2/2021 5:15:00 PM 7.0375 4.9168
7/2/2021 5:30:00 PM 7.0463 4.8461
7/2/2021 5:45:00 PM 7.0532 4.8
7/2/2021 6:00:00 PM 7.0692 4.5539
7/2/2021 6:15:00 PM 7.0821 4.5272
7/2/2021 6:30:00 PM 7.0922 4.674
7/2/2021 6:45:00 PM 7.0975 5.0905
7/2/2021 7:00:00 PM 7.1003 4.5968
7/2/2021 7:15:00 PM 7.1066 4.5369
7/2/2021 7:30:00 PM 7.1097 4.5997
7/2/2021 7:45:00 PM 7.0837 9.2144
7/2/2021 8:00:00 PM 7.1252 10.2688
7/2/2021 8:15:00 PM 7.1646 13.6088
7/2/2021 8:30:00 PM 7.172 11.4531
7/2/2021 8:45:00 PM 7.1722 11.1
7/2/2021 9:00:00 PM 7.2056 344.5419
7/2/2021 9:15:00 PM 7.2901 685.6361
7/2/2021 9:30:00 PM 7.3205 486.3284
7/2/2021 9:45:00 PM 7.226 486.3258
7/2/2021 10:00:00 PM 7.0243 486.3329
7/2/2021 10:15:00 PM 6.9291 486.3397
7/2/2021 10:30:00 PM 6.8829 486.3233
7/2/2021 10:45:00 PM 6.8805 486.3351
7/2/2021 11:00:00 PM 6.8922 486.3281
7/2/2021 11:15:00 PM 6.9012 486.3208
7/2/2021 11:30:00 PM 6.9123 486.3414
7/2/2021 11:45:00 PM 6.9216 486.3
7/3/2021 12:00:00 AM 6.9448 537.0379
7/3/2021 12:15:00 AM 6.9621 332.6484
7/3/2021 12:30:00 AM 6.9663 844.2077
7/3/2021 12:45:00 AM 6.9637 753.8502
7/3/2021 1:00:00 AM 6.9528 672.9214
7/3/2021 1:15:00 AM 6.9397 585.92
7/3/2021 1:30:00 AM 6.928 515.1914
7/3/2021 1:45:00 AM 6.9172 459.7356
7/3/2021 2:00:00 AM 6.9052 436.2963
7/3/2021 2:15:00 AM 6.8884 442.6029
7/3/2021 2:30:00 AM 6.8664 460.6878
7/3/2021 2:45:00 AM 6.8572 464.5002
7/3/2021 3:00:00 AM 6.8259 443.6517
7/3/2021 3:15:00 AM 6.8126 423.4982
7/3/2021 3:30:00 AM 6.7983 399.4229
7/3/2021 3:45:00 AM 6.7861 378.2349
7/3/2021 4:00:00 AM 6.7739 347.0056
7/3/2021 4:15:00 AM 6.7616 315.8897
7/3/2021 4:30:00 AM 6.7515 301.6951
7/3/2021 4:45:00 AM 6.7415 342.7365
7/3/2021 5:00:00 AM 6.7246 456.574
7/3/2021 5:15:00 AM 6.7013 638.7237
7/3/2021 5:30:00 AM 6.6746 931.5175
7/3/2021 5:45:00 AM 6.6626 1000.1
7/3/2021 6:00:00 AM 6.6141 1000.029
7/3/2021 6:15:00 AM 6.5874 1000.03
7/3/2021 6:30:00 AM 6.5676 1000.035
7/3/2021 6:45:00 AM 6.5548 1000.033
7/3/2021 7:00:00 AM 6.5438 1000.027
7/3/2021 7:15:00 AM 6.5392 1000.037
7/3/2021 7:30:00 AM 6.5357 1000.031
7/3/2021 7:45:00 AM 6.5362 1000.035
7/3/2021 8:00:00 AM 6.5387 1000.039
7/3/2021 8:15:00 AM 6.5422 1000.04
7/3/2021 8:30:00 AM 6.5494 893.9296
7/3/2021 8:45:00 AM 6.5576 784.099
7/3/2021 9:00:00 AM 6.5669 533.2222
7/3/2021 9:15:00 AM 6.5723 534.7868
7/3/2021 9:30:00 AM 6.5792 452.9891
7/3/2021 9:45:00 AM 6.5884 387.8817
7/3/2021 10:00:00 AM 6.5953 336.5478
7/3/2021 10:15:00 AM 6.5996 296.3582
7/3/2021 10:30:00 AM 6.6042 259.3454
7/3/2021 10:45:00 AM 6.6087 224.4973
7/3/2021 11:00:00 AM 6.6132 196.4745
7/3/2021 11:15:00 AM 6.6175 175.5285
7/3/2021 11:30:00 AM 6.6192 158.5755
7/3/2021 11:45:00 AM 6.6248 150.3001
7/3/2021 12:00:00 PM 6.6288 123.1897
7/3/2021 12:15:00 PM 6.6365 109.1724
7/3/2021 12:30:00 PM 6.6429 101.2409
7/3/2021 12:45:00 PM 6.6473 95.3095
7/3/2021 1:00:00 PM 6.6478 93.5207
7/3/2021 1:15:00 PM 6.6524 98.15
7/3/2021 1:30:00 PM 6.6538 106.0411
7/3/2021 1:45:00 PM 6.6571 114.1231
7/3/2021 2:00:00 PM 6.6619 125.4326
7/3/2021 2:15:00 PM 6.6584 131.1174
7/3/2021 2:30:00 PM 6.653 134.0431
7/3/2021 2:45:00 PM 6.6523 133.1553
7/3/2021 3:00:00 PM 6.6518 130.5746
7/3/2021 3:15:00 PM 6.655 129.5782
7/3/2021 3:30:00 PM 6.6602 123.0594
7/3/2021 3:45:00 PM 6.6561 113.236
7/3/2021 4:00:00 PM 6.6565 105.4094
7/3/2021 4:15:00 PM 6.6565 97.717
7/3/2021 4:30:00 PM 6.6601 91.2422
7/3/2021 4:45:00 PM 6.6647 82.7473
7/3/2021 5:00:00 PM 6.6712 74.0904
7/3/2021 5:15:00 PM 6.6785 68.9786
7/3/2021 5:30:00 PM 6.6846 65.1428
7/3/2021 5:45:00 PM 6.6836 63.5
7/3/2021 6:00:00 PM 6.6958 56.0481
7/3/2021 6:15:00 PM 6.7044 51.9892
7/3/2021 6:30:00 PM 6.7142 50.0379
7/3/2021 6:45:00 PM 6.7254 46.9182
7/3/2021 7:00:00 PM 6.7361 43.3454
7/3/2021 7:15:00 PM 6.7489 40.7686
7/3/2021 7:30:00 PM 6.759 38.0799
7/3/2021 7:45:00 PM 6.7676 35.8146
7/3/2021 8:00:00 PM 6.7764 33.9613
7/3/2021 8:15:00 PM 6.7849 32.3051
7/3/2021 8:30:00 PM 6.7942 30.8281
7/3/2021 8:45:00 PM 6.7984 29.8
7/3/2021 9:00:00 PM 6.8075 125.5766
7/3/2021 9:15:00 PM 6.7968 48.1703
7/3/2021 9:30:00 PM 6.8199 36.0009
7/3/2021 9:45:00 PM 6.8333 33.7707
7/3/2021 10:00:00 PM 6.8445 31.6461
7/3/2021 10:15:00 PM 6.8538 30.2653
7/3/2021 10:30:00 PM 6.8595 29.7275
7/3/2021 10:45:00 PM 6.8657 28.4692
7/3/2021 11:00:00 PM 6.8699 28.0434
7/3/2021 11:15:00 PM 6.8739 26.9752
7/3/2021 11:30:00 PM 6.8778 27.3255
7/3/2021 11:45:00 PM 6.881 25.8
7/4/2021 12:00:00 AM 6.88 25.064
7/4/2021 12:15:00 AM 6.8843 24.5886
7/4/2021 12:30:00 AM 6.8839 24.2438
7/4/2021 12:45:00 AM 6.8844 24.089
7/4/2021 1:00:00 AM 6.8842 23.6963
7/4/2021 1:15:00 AM 6.8836 23.1196
7/4/2021 1:30:00 AM 6.8843 23.4924
7/4/2021 1:45:00 AM 6.8841 23.3408
7/4/2021 2:00:00 AM 6.882 22.9756
7/4/2021 2:15:00 AM 6.881 22.4543
7/4/2021 2:30:00 AM 6.8806 22.9771
7/4/2021 2:45:00 AM 6.8852 24.0004
7/4/2021 3:00:00 AM 6.8792 25.7984
7/4/2021 3:15:00 AM 6.8792 25.8106
7/4/2021 3:30:00 AM 6.879 24.9866
7/4/2021 3:45:00 AM 6.8792 24.9719
7/4/2021 4:00:00 AM 6.8791 24.8217
7/4/2021 4:15:00 AM 6.8787 25.0191
7/4/2021 4:30:00 AM 6.8787 24.416
7/4/2021 4:45:00 AM 6.879 24.4281
7/4/2021 5:00:00 AM 6.8795 25.4154
7/4/2021 5:15:00 AM 6.8789 25.042
7/4/2021 5:30:00 AM 6.8792 24.6359
7/4/2021 5:45:00 AM 6.8852 23.9
7/4/2021 6:00:00 AM 6.8827 23.5512
7/4/2021 6:15:00 AM 6.8855 23.2854
7/4/2021 6:30:00 AM 6.8867 23.3768
7/4/2021 6:45:00 AM 6.8686 20.8137
7/4/2021 7:00:00 AM 6.8686 19.6799
7/4/2021 7:15:00 AM 6.8734 18.543
7/4/2021 7:30:00 AM 6.8799 17.5301
7/4/2021 7:45:00 AM 6.8843 16.9673
7/4/2021 8:00:00 AM 6.8887 16.4248
7/4/2021 8:15:00 AM 6.8923 15.8498
7/4/2021 8:30:00 AM 6.8976 18.0492
7/4/2021 8:45:00 AM 6.9006 20.5
7/4/2021 9:00:00 AM 6.9049 19.7113
7/4/2021 9:15:00 AM 6.9079 19.8975
7/4/2021 9:30:00 AM 6.9126 19.3677
7/4/2021 9:45:00 AM 6.913 18.5373
7/4/2021 10:00:00 AM 6.9158 19.0551
7/4/2021 10:15:00 AM 6.9169 18.4298
7/4/2021 10:30:00 AM 6.921 17.773
7/4/2021 10:45:00 AM 6.9242 17.1396
7/4/2021 11:00:00 AM 6.926 16.7747
7/4/2021 11:15:00 AM 6.9268 16.5575
7/4/2021 11:30:00 AM 6.9267 16.1065
7/4/2021 11:45:00 AM 6.9244 15.7
7/4/2021 12:00:00 PM 6.9301 15.5375
7/4/2021 12:15:00 PM 6.9326 16.1843
7/4/2021 12:30:00 PM 6.9359 15.3819
7/4/2021 12:45:00 PM 6.9348 14.9329
7/4/2021 1:00:00 PM 6.938 14.2275
7/4/2021 1:15:00 PM 6.9398 14.0653
7/4/2021 1:30:00 PM 6.9398 14.0134
7/4/2021 1:45:00 PM 6.9417 14.1005
7/4/2021 2:00:00 PM 6.9415 14.1111
7/4/2021 2:15:00 PM 6.9441 13.9566
7/4/2021 2:30:00 PM 6.946 13.7767
7/4/2021 2:45:00 PM 6.9471 13.309
7/4/2021 3:00:00 PM 6.951 13.3498
7/4/2021 3:15:00 PM 6.9511 13.3438
7/4/2021 3:30:00 PM 6.956 13.1116
7/4/2021 3:45:00 PM 6.9556 12.8669
7/4/2021 4:00:00 PM 6.956 12.8439
7/4/2021 4:15:00 PM 6.9587 12.7446
7/4/2021 4:30:00 PM 6.9595 12.855
7/4/2021 4:45:00 PM 6.9573 12.9208
7/4/2021 5:00:00 PM 6.9578 12.9946
7/4/2021 5:15:00 PM 6.9599 12.9401
7/4/2021 5:30:00 PM 6.9608 12.9572
7/4/2021 5:45:00 PM 6.9622 12.8
7/4/2021 6:00:00 PM 6.9608 13.0453
7/4/2021 6:15:00 PM 6.9609 12.6716
7/4/2021 6:30:00 PM 6.9648 13.0823
7/4/2021 6:45:00 PM 6.9657 12.9314
7/4/2021 7:00:00 PM 6.9653 12.6572
7/4/2021 7:15:00 PM 6.9653 13.0094
7/4/2021 7:30:00 PM 6.9651 13.0087
7/4/2021 7:45:00 PM 6.9643 12.884
7/4/2021 8:00:00 PM 6.9604 13.2257
7/4/2021 8:15:00 PM 6.9599 13.2217
7/4/2021 8:30:00 PM 6.9561 13.1403
7/4/2021 8:45:00 PM 6.958 13.1
7/4/2021 9:00:00 PM 6.9512 13.8779
7/4/2021 9:15:00 PM 6.9489 14.1401
7/4/2021 9:30:00 PM 6.9462 14.7424
7/4/2021 9:45:00 PM 6.9423 15.0467
7/4/2021 10:00:00 PM 6.9351 16.0036
7/4/2021 10:15:00 PM 6.9178 18.8153
7/4/2021 10:30:00 PM 6.9351 18.7264
7/4/2021 10:45:00 PM 6.9427 19.2921
7/4/2021 11:00:00 PM 6.9441 19.4716
7/4/2021 11:15:00 PM 6.9439 18.8278
7/4/2021 11:30:00 PM 6.9423 18.4304
7/4/2021 11:45:00 PM 6.9398 18.5
7/5/2021 12:00:00 AM 6.9411 18.0425
7/5/2021 12:15:00 AM 6.9368 18.0042
7/5/2021 12:30:00 AM 6.9334 17.6402
7/5/2021 12:45:00 AM 6.9297 17.8021
7/5/2021 1:00:00 AM 6.9266 17.9195
7/5/2021 1:15:00 AM 6.9222 18.1231
7/5/2021 1:30:00 AM 6.9205 18.3743
7/5/2021 1:45:00 AM 6.9175 17.7187
7/5/2021 2:00:00 AM 6.9149 17.579
7/5/2021 2:15:00 AM 6.9126 17.5169
7/5/2021 2:30:00 AM 6.9083 17.3089
7/5/2021 2:45:00 AM 6.909 17.7999
7/5/2021 3:00:00 AM 6.9049 17.6059
7/5/2021 3:15:00 AM 6.9029 17.2392
7/5/2021 3:30:00 AM 6.9008 18.0554
7/5/2021 3:45:00 AM 6.8986 17.9375
7/5/2021 4:00:00 AM 6.8968 18.0182
7/5/2021 4:15:00 AM 6.8936 18.149
7/5/2021 4:30:00 AM 6.8929 17.7953
7/5/2021 4:45:00 AM 6.8889 18.2879
7/5/2021 5:00:00 AM 6.8885 19.1436
7/5/2021 5:15:00 AM 6.8847 18.778
7/5/2021 5:30:00 AM 6.884 18.054
7/5/2021 5:45:00 AM 6.8838 17.4999
7/5/2021 6:00:00 AM 6.8645 15.8132
7/5/2021 6:15:00 AM 6.865 14.9936
7/5/2021 6:30:00 AM 6.865 14.4724
7/5/2021 6:45:00 AM 6.8649 14.026
7/5/2021 7:00:00 AM 6.8655 13.7392
7/5/2021 7:15:00 AM 6.865 13.337
7/5/2021 7:30:00 AM 6.8646 13.2569
7/5/2021 7:45:00 AM 6.8674 14.755
7/5/2021 8:00:00 AM 6.8684 13.2041
7/5/2021 8:15:00 AM 6.8698 12.8863
7/5/2021 8:30:00 AM 6.8699 12.9359
7/5/2021 8:45:00 AM 6.8726 12.4
7/5/2021 9:00:00 AM 6.8697 12.8994
7/5/2021 9:15:00 AM 6.8702 12.643
7/5/2021 9:30:00 AM 6.8737 11.7469
7/5/2021 9:45:00 AM 6.8746 11.3392
7/5/2021 10:00:00 AM 6.8746 11.5145
7/5/2021 10:15:00 AM 6.8772 11.3609
7/5/2021 10:30:00 AM 6.8803 11.3463
7/5/2021 10:45:00 AM 6.8837 10.9229
7/5/2021 11:00:00 AM 6.8878 10.7283
7/5/2021 11:15:00 AM 6.8912 10.4781
7/5/2021 11:30:00 AM 6.8958 10.4509
7/5/2021 11:45:00 AM 6.8992 10.2
7/5/2021 12:00:00 PM 6.906 10.0657
7/5/2021 12:15:00 PM 6.9114 9.9479
7/5/2021 12:30:00 PM 6.9183 9.8034
7/5/2021 12:45:00 PM 6.9248 11.6023
7/5/2021 1:00:00 PM 6.9327 13.1151
7/5/2021 1:15:00 PM 6.9435 10.6268
7/5/2021 1:30:00 PM 6.9527 9.9843
7/5/2021 1:45:00 PM 6.9628 9.913
7/5/2021 2:00:00 PM 6.9749 9.8858
7/5/2021 2:15:00 PM 6.9893 10.2303
7/5/2021 2:30:00 PM 7.0035 11.0378
7/5/2021 2:45:00 PM 7.0208 10.5771
7/5/2021 3:00:00 PM 7.0329 9.8244
7/5/2021 3:15:00 PM 7.0469 9.3326
7/5/2021 3:30:00 PM 7.0631 9.097
7/5/2021 3:45:00 PM 7.0757 8.9073
7/5/2021 4:00:00 PM 7.0879 9.1335
7/5/2021 4:15:00 PM 7.1 9.6459
7/5/2021 4:30:00 PM 7.1121 9.7143
7/5/2021 4:45:00 PM 7.1219 10.6322
7/5/2021 5:00:00 PM 7.1302 9.87
7/5/2021 5:15:00 PM 7.1416 9.0308
7/5/2021 5:30:00 PM 7.151 9.3936
7/5/2021 5:45:00 PM 7.1596 9.2999
7/5/2021 6:00:00 PM 7.1689 8.7222
7/5/2021 6:15:00 PM 7.1752 9.0077
7/5/2021 6:30:00 PM 7.1803 8.8396
7/5/2021 6:45:00 PM 7.1825 8.496
7/5/2021 7:00:00 PM 7.1861 8.3939
7/5/2021 7:15:00 PM 7.1866 8.0604
7/5/2021 7:30:00 PM 7.1867 8.2027
7/5/2021 7:45:00 PM 7.1826 8.1163
7/5/2021 8:00:00 PM 7.1796 8.1746
7/5/2021 8:15:00 PM 7.1744 8.1363
7/5/2021 8:30:00 PM 7.1684 8.2325
7/5/2021 8:45:00 PM 7.1624 8.1
7/5/2021 9:00:00 PM 7.1476 9.1168
7/5/2021 9:15:00 PM 7.1388 9.1055
7/5/2021 9:30:00 PM 7.1315 9.5915
7/5/2021 9:45:00 PM 7.1103 15.2869
7/5/2021 10:00:00 PM 7.1131 14.1509
7/5/2021 10:15:00 PM 7.1139 13.1788
7/5/2021 10:30:00 PM 7.1115 13.5956
7/5/2021 10:45:00 PM 7.1046 12.8345
7/5/2021 11:00:00 PM 7.0974 12.6086
7/5/2021 11:15:00 PM 7.0886 12.4162
7/5/2021 11:30:00 PM 7.0785 13.1765
7/5/2021 11:45:00 PM 7.07 14.5999
7/6/2021 12:00:00 AM 7.0581 16.5296
7/6/2021 12:15:00 AM 7.0482 14.1081
7/6/2021 12:30:00 AM 7.0388 13.0022
7/6/2021 12:45:00 AM 7.0288 12.5804
7/6/2021 1:00:00 AM 7.0179 14.5935
7/6/2021 1:15:00 AM 7.0079 13.4634
7/6/2021 1:30:00 AM 6.9973 13.1072
7/6/2021 1:45:00 AM 6.9876 12.1437
7/6/2021 2:00:00 AM 6.9786 12.3353
7/6/2021 2:15:00 AM 6.969 12.5025
7/6/2021 2:30:00 AM 6.96 15.7249
7/6/2021 2:45:00 AM 6.958 15.6998
7/6/2021 3:00:00 AM 6.9431 15.349
7/6/2021 3:15:00 AM 6.9342 14.8455
7/6/2021 3:30:00 AM 6.9258 15.8754
7/6/2021 3:45:00 AM 6.9172 15.7729
7/6/2021 4:00:00 AM 6.9105 14.9124
7/6/2021 4:15:00 AM 6.9039 13.3542
7/6/2021 4:30:00 AM 6.8933 13.8832
7/6/2021 4:45:00 AM 6.8829 12.3199
7/6/2021 5:00:00 AM 6.8756 12.2941
7/6/2021 5:15:00 AM 6.8711 11.8222
7/6/2021 5:30:00 AM 6.8654 11.9871
7/6/2021 5:45:00 AM 6.8642 11.2
7/6/2021 6:00:00 AM 6.8571 11.2343
7/6/2021 6:15:00 AM 6.8549 10.6683
7/6/2021 6:30:00 AM 6.8504 11.0918
7/6/2021 6:45:00 AM 6.8468 10.3656
7/6/2021 7:00:00 AM 6.8451 10.6373
7/6/2021 7:15:00 AM 6.8455 9.7772
7/6/2021 7:30:00 AM 6.8451 10.5935
7/6/2021 7:45:00 AM 6.8452 9.8113
7/6/2021 8:00:00 AM 6.845 10.0316
7/6/2021 8:15:00 AM 6.8449 9.6931
7/6/2021 8:30:00 AM 6.8464 10.4615
7/6/2021 8:45:00 AM 6.8474 10.2
7/6/2021 9:00:00 AM 6.8489 11.5251
7/6/2021 9:15:00 AM 6.8498 10.7425
7/6/2021 9:30:00 AM 6.8547 10.439
7/6/2021 9:45:00 AM 6.8601 9.7015
7/6/2021 10:00:00 AM 6.8647 10.1845
7/6/2021 10:15:00 AM 6.8706 10.113
7/6/2021 10:30:00 AM 6.8755 10.5894
7/6/2021 10:45:00 AM 6.8814 8.2712
7/6/2021 11:00:00 AM 6.8878 9.1715
7/6/2021 11:15:00 AM 6.8969 7.8759
7/6/2021 11:30:00 AM 6.9093 9.3334
7/6/2021 11:45:00 AM 6.9188 8.3
7/6/2021 12:00:00 PM 6.9253 8.7078
7/6/2021 12:15:00 PM 6.9366 7.3756
7/6/2021 12:30:00 PM 6.9456 8.4912
7/6/2021 12:45:00 PM 6.9592 7.4895
7/6/2021 1:00:00 PM 6.9718 8.488
7/6/2021 1:15:00 PM 6.9848 7.9633
7/6/2021 1:30:00 PM 6.9994 9.3358
7/6/2021 1:45:00 PM 7.01 8.9767
7/6/2021 2:00:00 PM 7.0236 11.0029
7/6/2021 2:15:00 PM 7.0395 10.3724
7/6/2021 2:30:00 PM 7.054 9.7889
7/6/2021 2:45:00 PM 7.0682 8.0636
7/6/2021 3:00:00 PM 7.0848 7.9676
7/6/2021 3:15:00 PM 7.103 6.4669
7/6/2021 3:30:00 PM 7.1141 7.8695
7/6/2021 3:45:00 PM 7.12 10.0858
7/6/2021 4:00:00 PM 7.1187 9.6101
7/6/2021 4:15:00 PM 7.119 7.6344
7/6/2021 4:30:00 PM 7.1254 7.7254
7/6/2021 4:45:00 PM 7.1324 6.4669
7/6/2021 5:00:00 PM 7.1399 7.5474
7/6/2021 5:15:00 PM 7.1461 6.7227
7/6/2021 5:30:00 PM 7.1519 7.5212
7/6/2021 5:45:00 PM 7.1512 7.2999
7/6/2021 6:00:00 PM 7.1606 8.0303
7/6/2021 6:15:00 PM 7.1627 7.8932
7/6/2021 6:30:00 PM 7.1609 9.5866
7/6/2021 6:45:00 PM 7.1539 8.9815
7/6/2021 7:00:00 PM 7.1528 9.8089
7/6/2021 7:15:00 PM 7.1489 8.4225
7/6/2021 7:30:00 PM 7.1448 9.208
7/6/2021 7:45:00 PM 7.1369 9.7789
7/6/2021 8:00:00 PM 7.1264 12.6327
7/6/2021 8:15:00 PM 7.1131 13.5947
7/6/2021 8:30:00 PM 7.1008 14.5349
7/6/2021 8:45:00 PM 7.0952 14.2
7/6/2021 9:00:00 PM 7.076 13.4891
7/6/2021 9:15:00 PM 7.0621 12.1122
7/6/2021 9:30:00 PM 7.0481 11.2622
7/6/2021 9:45:00 PM 7.0246 10.4917
7/6/2021 10:00:00 PM 7.0231 10.3856
7/6/2021 10:15:00 PM 7.0209 9.6289
7/6/2021 10:30:00 PM 7.0178 10.5109
7/6/2021 10:45:00 PM 7.0126 9.9942
7/6/2021 11:00:00 PM 7.008 10.4777
7/6/2021 11:15:00 PM 7.0018 10.457
7/6/2021 11:30:00 PM 6.9955 11.2717
7/6/2021 11:45:00 PM 6.9916 10.6
7/7/2021 12:00:00 AM 6.9819 11.4093
7/7/2021 12:15:00 AM 6.9748 11.674
7/7/2021 12:30:00 AM 6.967 11.9473
7/7/2021 12:45:00 AM 6.9618 11.4305
7/7/2021 1:00:00 AM 6.9551 11.5997
7/7/2021 1:15:00 AM 6.9485 12.0285
7/7/2021 1:30:00 AM 6.9432 12.1293
7/7/2021 1:45:00 AM 6.9369 11.2225
7/7/2021 2:00:00 AM 6.9317 11.169
7/7/2021 2:15:00 AM 6.9259 10.7194
7/7/2021 2:30:00 AM 6.9202 10.7893
7/7/2021 2:45:00 AM 6.9188 10.8001
7/7/2021 3:00:00 AM 6.9111 10.6326
7/7/2021 3:15:00 AM 6.9056 9.9691
7/7/2021 3:30:00 AM 6.9003 10.4912
7/7/2021 3:45:00 AM 6.8953 10.1326
7/7/2021 4:00:00 AM 6.8908 10.751
7/7/2021 4:15:00 AM 6.882 9.8366
7/7/2021 4:30:00 AM 6.8665 10.4618
7/7/2021 4:45:00 AM 6.8621 9.5002
7/7/2021 5:00:00 AM 6.8567 10.7223
7/7/2021 5:15:00 AM 6.8535 9.7701
7/7/2021 5:30:00 AM 6.8508 10.3748
7/7/2021 5:45:00 AM 6.8516 9.9
7/7/2021 6:00:00 AM 6.8454 10.3394
7/7/2021 6:15:00 AM 6.8447 9.251
7/7/2021 6:30:00 AM 6.8418 9.7657
7/7/2021 6:45:00 AM 6.8402 8.2093
7/7/2021 7:00:00 AM 6.8399 8.2332
7/7/2021 7:15:00 AM 6.8403 7.5514
7/7/2021 7:30:00 AM 6.8393 7.9137
7/7/2021 7:45:00 AM 6.8402 6.9579
7/7/2021 8:00:00 AM 6.8401 7.2083
7/7/2021 8:15:00 AM 6.84 6.8574
7/7/2021 8:30:00 AM 6.8436 7.3915
7/7/2021 8:45:00 AM 6.8418 7.1999
7/7/2021 9:00:00 AM 6.8406 8.1234
7/7/2021 9:15:00 AM 6.8437 7.0697
7/7/2021 9:30:00 AM 6.8458 7.5703
7/7/2021 9:45:00 AM 6.8504 7.1959
7/7/2021 10:00:00 AM 6.855 7.7697
7/7/2021 10:15:00 AM 6.8591 7.0813
7/7/2021 10:30:00 AM 6.8653 7.6296
7/7/2021 10:45:00 AM 6.8713 6.8642
7/7/2021 11:00:00 AM 6.8784 7.3245
7/7/2021 11:15:00 AM 6.8866 6.881
7/7/2021 11:30:00 AM 6.8923 6.8418
7/7/2021 11:45:00 AM 6.8936 6.5
7/7/2021 12:00:00 PM 6.9055 7.132
7/7/2021 12:15:00 PM 6.9102 7.5592
7/7/2021 12:30:00 PM 6.9185 7.5075
7/7/2021 12:45:00 PM 6.9266 6.6469
7/7/2021 1:00:00 PM 6.9359 7.1811
7/7/2021 1:15:00 PM 6.9477 6.8855
7/7/2021 1:30:00 PM 6.9617 7.0548
7/7/2021 1:45:00 PM 6.9745 6.7665
7/7/2021 2:00:00 PM 6.989 7.113
7/7/2021 2:15:00 PM 7.0008 7.3373
7/7/2021 2:30:00 PM 7.0147 6.2214
7/7/2021 2:45:00 PM 7.0295 5.5867
7/7/2021 3:00:00 PM 7.0466 5.7106
7/7/2021 3:15:00 PM 7.064 4.9823
7/7/2021 3:30:00 PM 7.0807 5.2406
7/7/2021 3:45:00 PM 7.0985 4.6153
7/7/2021 4:00:00 PM 7.1174 4.9177
7/7/2021 4:15:00 PM 7.1374 4.3064
7/7/2021 4:30:00 PM 7.1535 4.4385
7/7/2021 4:45:00 PM 7.1697 3.9791
7/7/2021 5:00:00 PM 7.1841 4.1577
7/7/2021 5:15:00 PM 7.199 3.4016
7/7/2021 5:30:00 PM 7.2119 3.6413
7/7/2021 5:45:00 PM 7.217 3.5
7/7/2021 6:00:00 PM 7.232 3.7335
7/7/2021 6:15:00 PM 7.2401 3.191
7/7/2021 6:30:00 PM 7.2504 3.3691
7/7/2021 6:45:00 PM 7.2567 2.9384
7/7/2021 7:00:00 PM 7.2632 3.2992
7/7/2021 7:15:00 PM 7.2644 2.8756
7/7/2021 7:30:00 PM 7.2645 3.1677
7/7/2021 7:45:00 PM 7.261 2.6829
7/7/2021 8:00:00 PM 7.258 2.9926
7/7/2021 8:15:00 PM 7.2523 2.7026
7/7/2021 8:30:00 PM 7.249 3.1659
7/7/2021 8:45:00 PM 7.245 2.9
7/7/2021 9:00:00 PM 7.2361 3.3591
7/7/2021 9:15:00 PM 7.2277 2.6714
7/7/2021 9:30:00 PM 7.2199 3.1129
7/7/2021 9:45:00 PM 7.2119 2.8517
7/7/2021 10:00:00 PM 7.1924 3.1692
7/7/2021 10:15:00 PM 7.1692 2.821
7/7/2021 10:30:00 PM 7.1765 3.2555
7/7/2021 10:45:00 PM 7.171 2.9836
7/7/2021 11:00:00 PM 7.1619 3.3215
7/7/2021 11:15:00 PM 7.1518 3.1232
7/7/2021 11:30:00 PM 7.138 3.4471
7/7/2021 11:45:00 PM 7.126 3.3
7/8/2021 12:00:00 AM 7.103 3.4008
7/8/2021 12:15:00 AM 7.0873 3.1057
7/8/2021 12:30:00 AM 7.0721 3.3904
7/8/2021 12:45:00 AM 7.0579 2.9927
7/8/2021 1:00:00 AM 7.044 3.3621
7/8/2021 1:15:00 AM 7.0299 3.2035
7/8/2021 1:30:00 AM 7.0152 3.4341
7/8/2021 1:45:00 AM 6.9987 3.088
7/8/2021 2:00:00 AM 6.984 3.3537
7/8/2021 2:15:00 AM 6.9692 3.1233
7/8/2021 2:30:00 AM 6.9555 3.4485
7/8/2021 2:45:00 AM 6.951 3.3
7/8/2021 3:00:00 AM 6.9285 3.5703
7/8/2021 3:15:00 AM 6.9164 3.1312
7/8/2021 3:30:00 AM 6.9041 3.3259
7/8/2021 3:45:00 AM 6.8831 3.153
7/8/2021 4:00:00 AM 6.8736 3.4688
7/8/2021 4:15:00 AM 6.8599 3.3175
7/8/2021 4:30:00 AM 6.8459 3.6549
7/8/2021 4:45:00 AM 6.834 3.3793
7/8/2021 5:00:00 AM 6.8234 3.6274
7/8/2021 5:15:00 AM 6.8146 3.2482
7/8/2021 5:30:00 AM 6.8069 3.637
7/8/2021 5:45:00 AM 6.8026 3.5
7/8/2021 6:00:00 AM 6.7919 3.7724
7/8/2021 6:15:00 AM 6.7843 3.3797
7/8/2021 6:30:00 AM 6.779 3.7225
7/8/2021 6:45:00 AM 6.7723 8.9599
7/8/2021 7:00:00 AM 6.7667 8.96
7/8/2021 7:15:00 AM 6.7622 16.8892
7/8/2021 7:30:00 AM 6.7576 16.3104
7/8/2021 7:45:00 AM 6.7578 19.9683
7/8/2021 8:00:00 AM 6.7575 19.0882
7/8/2021 8:15:00 AM 6.7514 22.6792
7/8/2021 8:30:00 AM 6.763 19.0259
7/8/2021 8:45:00 AM 6.7704 18.7
7/8/2021 9:00:00 AM 6.7781 17.2076
7/8/2021 9:15:00 AM 6.786 15.788
7/8/2021 9:30:00 AM 6.7951 15.5949
7/8/2021 9:45:00 AM 6.8072 15.1439
7/8/2021 10:00:00 AM 6.8104 14.5329
7/8/2021 10:15:00 AM 6.817 13.9018
7/8/2021 10:30:00 AM 6.8244 13.5818
7/8/2021 10:45:00 AM 6.8334 12.7179
7/8/2021 11:00:00 AM 6.8416 13.0488
7/8/2021 11:15:00 AM 6.8525 11.9595
7/8/2021 11:30:00 AM 6.8645 11.6906
7/8/2021 11:45:00 AM 6.8698 11.9
7/8/2021 12:00:00 PM 6.8835 12.1496
7/8/2021 12:15:00 PM 6.8901 11.7446
7/8/2021 12:30:00 PM 6.897 11.0868
7/8/2021 12:45:00 PM 6.9045 11.072
7/8/2021 1:00:00 PM 6.9116 10.6496
7/8/2021 1:15:00 PM 6.9198 10.5451
7/8/2021 1:30:00 PM 6.9003 10.5032
7/8/2021 1:45:00 PM 6.9047 9.8641
7/8/2021 2:00:00 PM 6.9144 9.7722
7/8/2021 2:15:00 PM 6.9204 9.7497
7/8/2021 2:30:00 PM 6.9217 10.2397
7/8/2021 2:45:00 PM 6.918 11.003
7/8/2021 3:00:00 PM 6.9088 12.043
7/8/2021 3:15:00 PM 6.8955 13.1538
7/8/2021 3:30:00 PM 6.878 14.8396
7/8/2021 3:45:00 PM 6.8562 16.9285
7/8/2021 4:00:00 PM 6.8304 18.8962
7/8/2021 4:15:00 PM 6.8039 19.359
7/8/2021 4:30:00 PM 6.7797 17.4508
7/8/2021 4:45:00 PM 6.7591 18.4827
7/8/2021 5:00:00 PM 6.7429 19.3204
7/8/2021 5:15:00 PM 6.7272 20.26
7/8/2021 5:30:00 PM 6.7123 20.7937
7/8/2021 5:45:00 PM 6.706 21.2
7/8/2021 6:00:00 PM 6.6844 22.0943
7/8/2021 6:15:00 PM 6.6715 22.4283
7/8/2021 6:30:00 PM 6.6603 22.5864
7/8/2021 6:45:00 PM 6.6509 22.5916
7/8/2021 7:00:00 PM 6.6433 22.2215
7/8/2021 7:15:00 PM 6.637 21.791
7/8/2021 7:30:00 PM 6.6313 21.3366
7/8/2021 7:45:00 PM 6.6278 21.3951
7/8/2021 8:00:00 PM 6.6257 20.3615
7/8/2021 8:15:00 PM 6.6232 20.7989
7/8/2021 8:30:00 PM 6.6212 21.5829
7/8/2021 8:45:00 PM 6.6192 21.7
7/8/2021 9:00:00 PM 6.6183 20.422
7/8/2021 9:15:00 PM 6.6182 19.1514
7/8/2021 9:30:00 PM 6.618 19.0545
7/8/2021 9:45:00 PM 6.6186 17.9907
7/8/2021 10:00:00 PM 6.6188 17.5385
7/8/2021 10:15:00 PM 6.6286 21.2811
7/8/2021 10:30:00 PM 6.6438 17.8748
7/8/2021 10:45:00 PM 6.6483 17.6838
7/8/2021 11:00:00 PM 6.6516 18.6837
7/8/2021 11:15:00 PM 6.6534 16.3648
7/8/2021 11:30:00 PM 6.6567 16.8051
7/8/2021 11:45:00 PM 6.657 16.1
7/9/2021 12:00:00 AM 6.6611 20.3972
7/9/2021 12:15:00 AM 6.6609 20.2387
7/9/2021 12:30:00 AM 6.6629 19.5623
7/9/2021 12:45:00 AM 6.6661 18.9578
7/9/2021 1:00:00 AM 6.6665 18.554
7/9/2021 1:15:00 AM 6.6678 18.3971
7/9/2021 1:30:00 AM 6.6711 18.3789
7/9/2021 1:45:00 AM 6.6725 18.7906
7/9/2021 2:00:00 AM 6.675 18.4585
7/9/2021 2:15:00 AM 6.6762 18.0558
7/9/2021 2:30:00 AM 6.6773 18.4005
7/9/2021 2:45:00 AM 6.6766 18.0999
7/9/2021 3:00:00 AM 6.6815 17.0962
7/9/2021 3:15:00 AM 6.6855 16.3559
7/9/2021 3:30:00 AM 6.6863 15.8761
7/9/2021 3:45:00 AM 6.687 16.2646
7/9/2021 4:00:00 AM 6.69 16.1854
7/9/2021 4:15:00 AM 6.6925 16.4704
7/9/2021 4:30:00 AM 6.6953 16.4825
7/9/2021 4:45:00 AM 6.6854 16.475
7/9/2021 5:00:00 AM 6.6807 15.1168
7/9/2021 5:15:00 AM 6.6816 14.8988
7/9/2021 5:30:00 AM 6.6855 14.4354
7/9/2021 5:45:00 AM 6.685 14.5
7/9/2021 6:00:00 AM 6.69 13.8951
7/9/2021 6:15:00 AM 6.6918 14.1427
7/9/2021 6:30:00 AM 6.695 13.8515
7/9/2021 6:45:00 AM 6.6964 13.1774
7/9/2021 7:00:00 AM 6.7001 12.6701
7/9/2021 7:15:00 AM 6.6997 12.4133
7/9/2021 7:30:00 AM 6.7024 12.3205
7/9/2021 7:45:00 AM 6.705 12.1922
7/9/2021 8:00:00 AM 6.7094 12.0029
7/9/2021 8:15:00 AM 6.7102 11.9789
7/9/2021 8:30:00 AM 6.7133 11.7492
7/9/2021 8:45:00 AM 6.7172 11.9
7/9/2021 9:00:00 AM 6.7184 11.6093
7/9/2021 9:15:00 AM 6.7201 11.4223
7/9/2021 9:30:00 AM 6.7244 11.3074
7/9/2021 9:45:00 AM 6.7248 10.9992
7/9/2021 10:00:00 AM 6.7286 10.8404
7/9/2021 10:15:00 AM 6.729 11.186
7/9/2021 10:30:00 AM 6.7287 11.1728
7/9/2021 10:45:00 AM 6.7303 11.0767
7/9/2021 11:00:00 AM 6.7301 10.9487
7/9/2021 11:15:00 AM 6.7329 11.1887
7/9/2021 11:30:00 AM 6.7309 10.7473
7/9/2021 11:45:00 AM 6.7298 10.6
7/9/2021 12:00:00 PM 6.7375 10.4294
7/9/2021 12:15:00 PM 6.7383 10.8968
7/9/2021 12:30:00 PM 6.7416 10.8208
7/9/2021 12:45:00 PM 6.7438 10.9917
7/9/2021 1:00:00 PM 6.7459 11.1538
7/9/2021 1:15:00 PM 6.7469 10.7038
7/9/2021 1:30:00 PM 6.7518 10.2059
7/9/2021 1:45:00 PM 6.7548 9.8794
7/9/2021 2:00:00 PM 6.761 9.7482
7/9/2021 2:15:00 PM 6.7662 10.069
7/9/2021 2:30:00 PM 6.7713 9.899
7/9/2021 2:45:00 PM 6.7752 9.7029
7/9/2021 3:00:00 PM 6.7804 9.5593
7/9/2021 3:15:00 PM 6.7852 9.5149
7/9/2021 3:30:00 PM 6.79 9.3521
7/9/2021 3:45:00 PM 6.7952 9.5086
7/9/2021 4:00:00 PM 6.8045 9.6592
7/9/2021 4:15:00 PM 6.8137 9.718
7/9/2021 4:30:00 PM 6.8204 9.7284
7/9/2021 4:45:00 PM 6.8249 9.6078
7/9/2021 5:00:00 PM 6.8269 9.4555
7/9/2021 5:15:00 PM 6.8322 9.3324
7/9/2021 5:30:00 PM 6.839 9.2378
7/9/2021 5:45:00 PM 6.839 9.3
7/9/2021 6:00:00 PM 6.8523 9.0232
7/9/2021 6:15:00 PM 6.8586 9.1736
7/9/2021 6:30:00 PM 6.8637 9.1353
7/9/2021 6:45:00 PM 6.8672 9.0514
7/9/2021 7:00:00 PM 6.869 9.0209
7/9/2021 7:15:00 PM 6.8696 9.1878
7/9/2021 7:30:00 PM 6.8737 9.1429
7/9/2021 7:45:00 PM 6.8741 9.3168
7/9/2021 8:00:00 PM 6.8739 9.4535
7/9/2021 8:15:00 PM 6.8724 9.4388
7/9/2021 8:30:00 PM 6.8691 9.9116
7/9/2021 8:45:00 PM 6.8656 10.1
7/9/2021 9:00:00 PM 6.8621 10.6849
7/9/2021 9:15:00 PM 6.8567 11.6215
7/9/2021 9:30:00 PM 6.8508 12.8551
7/9/2021 9:45:00 PM 6.844 13.5697
7/9/2021 10:00:00 PM 6.8327 15.3134
7/9/2021 10:15:00 PM 6.8152 19.1404
7/9/2021 10:30:00 PM 6.8245 18.5445
7/9/2021 10:45:00 PM 6.825 18.1633
7/9/2021 11:00:00 PM 6.8236 17.8212
7/9/2021 11:15:00 PM 6.8196 17.904
7/9/2021 11:30:00 PM 6.8153 17.8205
7/9/2021 11:45:00 PM 6.8124 17.2
7/10/2021 12:00:00 AM 6.8092 16.758
7/10/2021 12:15:00 AM 6.8055 16.2512
7/10/2021 12:30:00 AM 6.8033 15.7161
7/10/2021 12:45:00 AM 6.8003 15.8629
7/10/2021 1:00:00 AM 6.7983 15.6988
7/10/2021 1:15:00 AM 6.7957 15.7304
7/10/2021 1:30:00 AM 6.7956 15.4448
7/10/2021 1:45:00 AM 6.7926 15.0805
7/10/2021 2:00:00 AM 6.7915 14.6398
7/10/2021 2:15:00 AM 6.7911 14.5685
7/10/2021 2:30:00 AM 6.7911 14.3117
7/10/2021 2:45:00 AM 6.7914 14.0002
7/10/2021 3:00:00 AM 6.7859 14.0815
7/10/2021 3:15:00 AM 6.7731 13.1349
7/10/2021 3:30:00 AM 6.7718 12.5007
7/10/2021 3:45:00 AM 6.7715 12.4782
7/10/2021 4:00:00 AM 6.7719 12.4826
7/10/2021 4:15:00 AM 6.7723 12.3218
7/10/2021 4:30:00 AM 6.7757 12.3334
7/10/2021 4:45:00 AM 6.7768 12.4094
7/10/2021 5:00:00 AM 6.7765 12.6491
7/10/2021 5:15:00 AM 6.7778 12.8084
7/10/2021 5:30:00 AM 6.78 12.807
7/10/2021 5:45:00 AM 6.7802 13.1
7/10/2021 6:00:00 AM 6.7816 12.3874
7/10/2021 6:15:00 AM 6.7815 12.1449
7/10/2021 6:30:00 AM 6.7817 11.7867
7/10/2021 6:45:00 AM 6.7854 11.5163
7/10/2021 7:00:00 AM 6.7864 11.2824
7/10/2021 7:15:00 AM 6.7866 11.1194
7/10/2021 7:30:00 AM 6.7862 10.9326
7/10/2021 7:45:00 AM 6.786 10.9172
7/10/2021 8:00:00 AM 6.786 10.9464
7/10/2021 8:15:00 AM 6.7869 10.8375
7/10/2021 8:30:00 AM 6.787 10.5261
7/10/2021 8:45:00 AM 6.7928 10.4
7/10/2021 9:00:00 AM 6.7899 10.2191
7/10/2021 9:15:00 AM 6.7909 10.1582
7/10/2021 9:30:00 AM 6.7922 11.546
7/10/2021 9:45:00 AM 6.7964 10.7751
7/10/2021 10:00:00 AM 6.7955 10.0824
7/10/2021 10:15:00 AM 6.7911 9.8908
7/10/2021 10:30:00 AM 6.7914 9.5855
7/10/2021 10:45:00 AM 6.791 9.5743
7/10/2021 11:00:00 AM 6.7914 9.4343
7/10/2021 11:15:00 AM 6.7942 9.4873
7/10/2021 11:30:00 AM 6.7957 9.2808
7/10/2021 11:45:00 AM 6.7956 9.4
7/10/2021 12:00:00 PM 6.7961 8.9776
7/10/2021 12:15:00 PM 6.7984 8.8935
7/10/2021 12:30:00 PM 6.8009 8.7902
7/10/2021 12:45:00 PM 6.8007 8.8537
7/10/2021 1:00:00 PM 6.8055 8.7774
7/10/2021 1:15:00 PM 6.8082 8.8265
7/10/2021 1:30:00 PM 6.8145 8.6734
7/10/2021 1:45:00 PM 6.8154 8.5903
7/10/2021 2:00:00 PM 6.8147 8.653
7/10/2021 2:15:00 PM 6.8187 8.7532
7/10/2021 2:30:00 PM 6.8243 8.6068
7/10/2021 2:45:00 PM 6.8307 8.7162
7/10/2021 3:00:00 PM 6.8355 8.8441
7/10/2021 3:15:00 PM 6.8393 8.8752
7/10/2021 3:30:00 PM 6.846 8.7943
7/10/2021 3:45:00 PM 6.8537 8.9597
7/10/2021 4:00:00 PM 6.8582 10.2481
7/10/2021 4:15:00 PM 6.8624 9.2109
7/10/2021 4:30:00 PM 6.8687 9.0206
7/10/2021 4:45:00 PM 6.8721 9.1338
7/10/2021 5:00:00 PM 6.8781 8.9809
7/10/2021 5:15:00 PM 6.8856 9.0361
7/10/2021 5:30:00 PM 6.892 9.0263
7/10/2021 5:45:00 PM 6.8992 9
7/10/2021 6:00:00 PM 6.9101 8.9268
7/10/2021 6:15:00 PM 6.9202 8.8117
7/10/2021 6:30:00 PM 6.9254 8.7292
7/10/2021 6:45:00 PM 6.9317 8.6501
7/10/2021 7:00:00 PM 6.9373 8.7414
7/10/2021 7:15:00 PM 6.9435 8.7144
7/10/2021 7:30:00 PM 6.9479 8.7074
7/10/2021 7:45:00 PM 6.9525 8.7157
7/10/2021 8:00:00 PM 6.9558 8.591
7/10/2021 8:15:00 PM 6.9598 8.6252
7/10/2021 8:30:00 PM 6.9615 8.662
7/10/2021 8:45:00 PM 6.9608 8.7
7/10/2021 9:00:00 PM 6.9642 9.2516
7/10/2021 9:15:00 PM 6.9695 9.4222
7/10/2021 9:30:00 PM 6.9703 9.3505
7/10/2021 9:45:00 PM 6.969 10.3627
7/10/2021 10:00:00 PM 6.9471 21.1753
7/10/2021 10:15:00 PM 6.9642 13.2796
7/10/2021 10:30:00 PM 6.9751 12.287
7/10/2021 10:45:00 PM 6.9789 11.8864
7/10/2021 11:00:00 PM 6.9779 11.7237
7/10/2021 11:15:00 PM 6.9751 11.4024
7/10/2021 11:30:00 PM 6.9723 11.1568
7/10/2021 11:45:00 PM 6.9706 11
7/11/2021 12:00:00 AM 6.9626 11.1467
7/11/2021 12:15:00 AM 6.9575 11.3841
7/11/2021 12:30:00 AM 6.9526 11.061
7/11/2021 12:45:00 AM 6.9465 10.9948
7/11/2021 1:00:00 AM 6.9409 10.7766
7/11/2021 1:15:00 AM 6.9352 11.094
7/11/2021 1:30:00 AM 6.9303 11.0173
7/11/2021 1:45:00 AM 6.9256 10.9314
7/11/2021 2:00:00 AM 6.92 10.8145
7/11/2021 2:15:00 AM 6.914 11.3709
7/11/2021 2:30:00 AM 6.9094 11.2923
7/11/2021 2:45:00 AM 6.9048 10.8001
7/11/2021 3:00:00 AM 6.903 11.6304
7/11/2021 3:15:00 AM 6.8991 11.3374
7/11/2021 3:30:00 AM 6.8946 11.4151
7/11/2021 3:45:00 AM 6.89 11.2407
7/11/2021 4:00:00 AM 6.8887 11.2564
7/11/2021 4:15:00 AM 6.8853 11.66
7/11/2021 4:30:00 AM 6.8842 12.3547
7/11/2021 4:45:00 AM 6.8782 11.9825
7/11/2021 5:00:00 AM 6.845 11.1516
7/11/2021 5:15:00 AM 6.8362 10.6082
7/11/2021 5:30:00 AM 6.8445 10.5981
7/11/2021 5:45:00 AM 6.8474 10.7
7/11/2021 6:00:00 AM 6.8458 10.5988
7/11/2021 6:15:00 AM 6.8455 10.3627
7/11/2021 6:30:00 AM 6.8451 10.0961
7/11/2021 6:45:00 AM 6.8412 9.5125
7/11/2021 7:00:00 AM 6.8375 9.4516
7/11/2021 7:15:00 AM 6.8355 9.615
7/11/2021 7:30:00 AM 6.8354 9.4386
7/11/2021 7:45:00 AM 6.8314 9.2764
7/11/2021 8:00:00 AM 6.8291 9.4347
7/11/2021 8:15:00 AM 6.8254 9.9757
7/11/2021 8:30:00 AM 6.822 9.7099
7/11/2021 8:45:00 AM 6.818 9.6
7/11/2021 9:00:00 AM 6.8181 9.0394
7/11/2021 9:15:00 AM 6.8163 9.7279
7/11/2021 9:30:00 AM 6.8208 9.8581
7/11/2021 9:45:00 AM 6.8144 9.4729
7/11/2021 10:00:00 AM 6.8098 9.5206
7/11/2021 10:15:00 AM 6.8037 9.0638
7/11/2021 10:30:00 AM 6.7996 8.848
7/11/2021 10:45:00 AM 6.7964 8.8513
7/11/2021 11:00:00 AM 6.7943 8.5632
7/11/2021 11:15:00 AM 6.792 8.6084
7/11/2021 11:30:00 AM 6.792 8.5818
7/11/2021 11:45:00 AM 6.7886 8.4
7/11/2021 12:00:00 PM 6.7893 8.1745
7/11/2021 12:15:00 PM 6.7872 8.1756
7/11/2021 12:30:00 PM 6.7868 8.002
7/11/2021 12:45:00 PM 6.7873 7.9727
7/11/2021 1:00:00 PM 6.7878 7.8878
7/11/2021 1:15:00 PM 6.7871 7.9423
7/11/2021 1:30:00 PM 6.7869 7.8824
7/11/2021 1:45:00 PM 6.7831 7.7717
7/11/2021 2:00:00 PM 6.7866 7.6516
7/11/2021 2:15:00 PM 6.787 7.6995
7/11/2021 2:30:00 PM 6.7871 7.6894
7/11/2021 2:45:00 PM 6.787 7.9278
7/11/2021 3:00:00 PM 6.789 7.9148
7/11/2021 3:15:00 PM 6.7911 7.6932
7/11/2021 3:30:00 PM 6.792 7.662
7/11/2021 3:45:00 PM 6.7958 7.4573
7/11/2021 4:00:00 PM 6.7981 7.4668
7/11/2021 4:15:00 PM 6.8015 7.3454
7/11/2021 4:30:00 PM 6.8018 7.4291
7/11/2021 4:45:00 PM 6.801 7.4565
7/11/2021 5:00:00 PM 6.7972 7.6795
7/11/2021 5:15:00 PM 6.7965 7.8337
7/11/2021 5:30:00 PM 6.7965 8.7227
7/11/2021 5:45:00 PM 6.7942 8.5
7/11/2021 6:00:00 PM 6.7987 7.464
7/11/2021 6:15:00 PM 6.8039 7.4924
7/11/2021 6:30:00 PM 6.8023 7.3365
7/11/2021 6:45:00 PM 6.8042 7.4611
7/11/2021 7:00:00 PM 6.8117 7.8107
7/11/2021 7:15:00 PM 6.8173 8.1287
7/11/2021 7:30:00 PM 6.8221 8.5679
7/11/2021 7:45:00 PM 6.8262 8.6027
7/11/2021 8:00:00 PM 6.8256 8.684
7/11/2021 8:15:00 PM 6.8261 8.6529
7/11/2021 8:30:00 PM 6.8215 9.2233
7/11/2021 8:45:00 PM 6.8222 9.8
7/11/2021 9:00:00 PM 6.8264 14.1568
7/11/2021 9:15:00 PM 6.8307 16.2344
7/11/2021 9:30:00 PM 6.8301 18.8464
7/11/2021 9:45:00 PM 6.8248 20.8063
7/11/2021 10:00:00 PM 6.8207 26.5292
7/11/2021 10:15:00 PM 6.8217 37.5772
7/11/2021 10:30:00 PM 6.8224 56.5224
7/11/2021 10:45:00 PM 6.8179 76.1844
7/11/2021 11:00:00 PM 6.8118 105.7602
7/11/2021 11:15:00 PM 6.8058 139.66
7/11/2021 11:30:00 PM 6.7985 172.0498
7/11/2021 11:45:00 PM 6.7984 186.9999
7/12/2021 12:00:00 AM 6.7848 214.9899
7/12/2021 12:15:00 AM 6.7745 241.1606
7/12/2021 12:30:00 AM 6.7644 261.7673
7/12/2021 12:45:00 AM 6.752 261.2975
7/12/2021 1:00:00 AM 6.7402 255.0426
7/12/2021 1:15:00 AM 6.7321 246.5398
7/12/2021 1:30:00 AM 6.72 231.3676
7/12/2021 1:45:00 AM 6.706 218.6097
7/12/2021 2:00:00 AM 6.698 213.1227
7/12/2021 2:15:00 AM 6.6881 208.6051
7/12/2021 2:30:00 AM 6.6805 203.2857
7/12/2021 2:45:00 AM 6.678 200.4001
7/12/2021 3:00:00 AM 6.6679 187.9075
7/12/2021 3:15:00 AM 6.6641 176.5876
7/12/2021 3:30:00 AM 6.6599 161.9787
7/12/2021 3:45:00 AM 6.6566 148.4617
7/12/2021 4:00:00 AM 6.657 131.0934
7/12/2021 4:15:00 AM 6.6563 117.0403
7/12/2021 4:30:00 AM 6.6587 103.7224
7/12/2021 4:45:00 AM 6.6613 91.4526
7/12/2021 5:00:00 AM 6.6629 79.1043
7/12/2021 5:15:00 AM 6.6667 70.0533
7/12/2021 5:30:00 AM 6.6707 61.8924
7/12/2021 5:45:00 AM 6.6724 58.5
7/12/2021 6:00:00 AM 6.675 50.345
7/12/2021 6:15:00 AM 6.6769 43.6653
7/12/2021 6:30:00 AM 6.6801 38.806
7/12/2021 6:45:00 AM 6.6833 34.2893
7/12/2021 7:00:00 AM 6.6864 30.8286
7/12/2021 7:15:00 AM 6.6875 27.9487
7/12/2021 7:30:00 AM 6.6907 25.5182
7/12/2021 7:45:00 AM 6.6911 22.3089
7/12/2021 8:00:00 AM 6.6936 19.9472
7/12/2021 8:15:00 AM 6.6962 18.1796
7/12/2021 8:30:00 AM 6.6997 17.1663
7/12/2021 8:45:00 AM 6.7004 20.7
7/12/2021 9:00:00 AM 6.7006 19.3412
7/12/2021 9:15:00 AM 6.7062 18.8449
7/12/2021 9:30:00 AM 6.7098 18.1718
7/12/2021 9:45:00 AM 6.709 17.4435
7/12/2021 10:00:00 AM 6.7075 17.016
7/12/2021 10:15:00 AM 6.7094 16.8889
7/12/2021 10:30:00 AM 6.7106 17.078
7/12/2021 10:45:00 AM 6.7145 16.9006
7/12/2021 11:00:00 AM 6.7149 17.7804
7/12/2021 11:15:00 AM 6.7152 17.6361
7/12/2021 11:30:00 AM 6.7154 17.9191
7/12/2021 11:45:00 AM 6.7116 18.9999
7/12/2021 12:00:00 PM 6.7108 47.5274
7/12/2021 12:15:00 PM 6.7098 49.679
7/12/2021 12:30:00 PM 6.7101 51.0058
7/12/2021 12:45:00 PM 6.7097 53.01
7/12/2021 1:00:00 PM 6.706 54.2578
7/12/2021 1:15:00 PM 6.7006 52.9568
7/12/2021 1:30:00 PM 6.6954 51.3607
7/12/2021 1:45:00 PM 6.6894 49.6147
7/12/2021 2:00:00 PM 6.6859 49.699
7/12/2021 2:15:00 PM 6.6855 46.1817
7/12/2021 2:30:00 PM 6.6854 44.6284
7/12/2021 2:45:00 PM 6.6858 43.3039
7/12/2021 3:00:00 PM 6.6887 41.7816
7/12/2021 3:15:00 PM 6.6925 40.1225
7/12/2021 3:30:00 PM 6.6979 38.7129
7/12/2021 3:45:00 PM 6.7056 38.5206
7/12/2021 4:00:00 PM 6.7115 39.2218
7/12/2021 4:15:00 PM 6.7149 43.7808
7/12/2021 4:30:00 PM 6.7139 48.9026
7/12/2021 4:45:00 PM 6.7077 55.1144
7/12/2021 5:00:00 PM 6.6992 66.3116
7/12/2021 5:15:00 PM 6.6871 83.5324
7/12/2021 5:30:00 PM 6.6733 104.9609
7/12/2021 5:45:00 PM 6.664 119.4999
7/12/2021 6:00:00 PM 6.6374 178.1992
7/12/2021 6:15:00 PM 6.6158 223.802
7/12/2021 6:30:00 PM 6.5933 272.3146
7/12/2021 6:45:00 PM 6.5683 310.2508
7/12/2021 7:00:00 PM 6.5449 339.2893
7/12/2021 7:15:00 PM 6.5276 352.9627
7/12/2021 7:30:00 PM 6.5113 360.2623
7/12/2021 7:45:00 PM 6.4981 363.6314
7/12/2021 8:00:00 PM 6.4962 611.6605
7/12/2021 8:15:00 PM 6.5236 827.9293
7/12/2021 8:30:00 PM 6.5488 827.9348
7/12/2021 8:45:00 PM 6.5548 828
7/12/2021 9:00:00 PM 6.5738 827.9329
7/12/2021 9:15:00 PM 6.5716 827.9289
7/12/2021 9:30:00 PM 6.5629 827.9241
7/12/2021 9:45:00 PM 6.5496 827.9233
7/12/2021 10:00:00 PM 6.5365 827.9146
7/12/2021 10:15:00 PM 6.5219 827.9329
7/12/2021 10:30:00 PM 6.5074 827.9237
7/12/2021 10:45:00 PM 6.4923 861.4174
7/12/2021 11:00:00 PM 6.4773 719.7602
7/12/2021 11:15:00 PM 6.4583 675.5564
7/12/2021 11:30:00 PM 6.4395 723.6018
7/12/2021 11:45:00 PM 6.4274 756.4002
7/13/2021 12:00:00 AM 6.3977 963.0633
7/13/2021 12:15:00 AM 6.3782 1000.036
7/13/2021 12:30:00 AM 6.3598 1000.031
7/13/2021 12:45:00 AM 6.3453 1000.029
7/13/2021 1:00:00 AM 6.3324 1000.035
7/13/2021 1:15:00 AM 6.322 992.1961
7/13/2021 1:30:00 AM 6.3134 871.1883
7/13/2021 1:45:00 AM 6.3083 768.4579
7/13/2021 2:00:00 AM 6.3032 709.2461
7/13/2021 2:15:00 AM 6.2997 638.7279
7/13/2021 2:30:00 AM 6.2984 588.3151
7/13/2021 2:45:00 AM 6.3 565.983
7/13/2021 3:00:00 AM 6.2974 493.8985
7/13/2021 3:15:00 AM 6.2971 453.2741
7/13/2021 3:30:00 AM 6.2981 417.6171
7/13/2021 3:45:00 AM 6.2985 384.9643
7/13/2021 4:00:00 AM 6.2982 358.5745
7/13/2021 4:15:00 AM 6.2979 331.6038
7/13/2021 4:30:00 AM 6.2984 309.1142
7/13/2021 4:45:00 AM 6.3017 288.6584
7/13/2021 5:00:00 AM 6.3029 272.1992
7/13/2021 5:15:00 AM 6.3028 259.8874
7/13/2021 5:30:00 AM 6.303 244.7615
7/13/2021 5:45:00 AM 6.3028 238.7
7/13/2021 6:00:00 AM 6.3036 225.1725
7/13/2021 6:15:00 AM 6.3057 219.2138
7/13/2021 6:30:00 AM 6.3068 213.7077
7/13/2021 6:45:00 AM 6.3072 210.19
7/13/2021 7:00:00 AM 6.3072 205.9951
7/13/2021 7:15:00 AM 6.3077 200.5988
7/13/2021 7:30:00 AM 6.3077 196.3296
7/13/2021 7:45:00 AM 6.308 193.266
7/13/2021 8:00:00 AM 6.3082 185.5928
7/13/2021 8:15:00 AM 6.3101 178.9774
7/13/2021 8:30:00 AM 6.3114 171.3627
7/13/2021 8:45:00 AM 6.3154 167.5
7/13/2021 9:00:00 AM 6.3131 159.6273
7/13/2021 9:15:00 AM 6.3139 151.1528
7/13/2021 9:30:00 AM 6.3165 142.8596
7/13/2021 9:45:00 AM 6.318 137.3077
7/13/2021 10:00:00 AM 6.3182 133.5734
7/13/2021 10:15:00 AM 6.3227 127.1255
7/13/2021 10:30:00 AM 6.323 124.0082
7/13/2021 10:45:00 AM 6.3244 123.1583
7/13/2021 11:00:00 AM 6.328 115.7305
7/13/2021 11:15:00 AM 6.3292 100.4429
7/13/2021 11:30:00 AM 6.3329 95.9844
7/13/2021 11:45:00 AM 6.3336 95.9
7/13/2021 12:00:00 PM 6.3369 101.8967
7/13/2021 12:15:00 PM 6.341 99.4523
7/13/2021 12:30:00 PM 6.3418 96.2585
7/13/2021 12:45:00 PM 6.3418 93.4656
7/13/2021 1:00:00 PM 6.3451 91.8787
7/13/2021 1:15:00 PM 6.3443 89.041
7/13/2021 1:30:00 PM 6.3457 86.334
7/13/2021 1:45:00 PM 6.3458 85.4188
7/13/2021 2:00:00 PM 6.347 84.1541
7/13/2021 2:15:00 PM 6.3468 82.748
7/13/2021 2:30:00 PM 6.3466 81.5347
7/13/2021 2:45:00 PM 6.3468 80.8328
7/13/2021 3:00:00 PM 6.3499 79.0789
7/13/2021 3:15:00 PM 6.3511 79.2752
7/13/2021 3:30:00 PM 6.3492 78.1984
7/13/2021 3:45:00 PM 6.3473 78.3292
7/13/2021 4:00:00 PM 6.3464 77.6663
7/13/2021 4:15:00 PM 6.3464 76.8567
7/13/2021 4:30:00 PM 6.3462 76.5751
7/13/2021 4:45:00 PM 6.3467 75.9807
7/13/2021 5:00:00 PM 6.3465 74.893
7/13/2021 5:15:00 PM 6.3457 73.6144
7/13/2021 5:30:00 PM 6.3429 72.9244
7/13/2021 5:45:00 PM 6.3476 72.9
7/13/2021 6:00:00 PM 6.3446 69.9865
7/13/2021 6:15:00 PM 6.3445 68.6862
7/13/2021 6:30:00 PM 6.3444 67.5915
7/13/2021 6:45:00 PM 6.3432 66.6545
7/13/2021 7:00:00 PM 6.3431 65.7451
7/13/2021 7:15:00 PM 6.3448 65.332
7/13/2021 7:30:00 PM 6.3445 64.0516
7/13/2021 7:45:00 PM 6.3433 61.9862
7/13/2021 8:00:00 PM 6.3421 61.0454
7/13/2021 8:15:00 PM 6.3418 59.1848
7/13/2021 8:30:00 PM 6.3418 58.2422
7/13/2021 8:45:00 PM 6.3434 59.1
7/13/2021 9:00:00 PM 6.3417 57.4078
7/13/2021 9:15:00 PM 6.3397 56.6673
7/13/2021 9:30:00 PM 6.3375 55.9911
7/13/2021 9:45:00 PM 6.3372 55.6935
7/13/2021 10:00:00 PM 6.3371 55.2779
7/13/2021 10:15:00 PM 6.3363 54.7602
7/13/2021 10:30:00 PM 6.3367 57.9403
7/13/2021 10:45:00 PM 6.3368 56.5724
7/13/2021 11:00:00 PM 6.3374 54.4015
7/13/2021 11:15:00 PM 6.3369 51.8186
7/13/2021 11:30:00 PM 6.3383 50.8324
7/13/2021 11:45:00 PM 6.342 50.1
7/14/2021 12:00:00 AM 6.3465 52.319
7/14/2021 12:15:00 AM 6.3545 58.2003
7/14/2021 12:30:00 AM 6.3619 68.0172
7/14/2021 12:45:00 AM 6.3662 77.1497
7/14/2021 1:00:00 AM 6.3678 84.7709
7/14/2021 1:15:00 AM 6.3702 92.4254
7/14/2021 1:30:00 AM 6.3732 99.6883
7/14/2021 1:45:00 AM 6.3761 103.1729
7/14/2021 2:00:00 AM 6.3806 144.3055
7/14/2021 2:15:00 AM 6.3807 100.0152
7/14/2021 2:30:00 AM 6.3807 96.4424
7/14/2021 2:45:00 AM 6.3826 94.8
7/14/2021 3:00:00 AM 6.3805 85.591
7/14/2021 3:15:00 AM 6.3812 78.1456
7/14/2021 3:30:00 AM 6.3796 75.5669
7/14/2021 3:45:00 AM 6.3759 70.9595
7/14/2021 4:00:00 AM 6.3728 66.8683
7/14/2021 4:15:00 AM 6.37 63.0461
7/14/2021 4:30:00 AM 6.3657 61.8752
7/14/2021 4:45:00 AM 6.3651 57.4877
7/14/2021 5:00:00 AM 6.3616 55.9539
7/14/2021 5:15:00 AM 6.3604 54.5947
7/14/2021 5:30:00 AM 6.3575 55.8527
7/14/2021 5:45:00 AM 6.3574 56.5
7/14/2021 6:00:00 AM 6.3516 53.3085
7/14/2021 6:15:00 AM 6.3514 51.9309
7/14/2021 6:30:00 AM 6.3488 50.5636
7/14/2021 6:45:00 AM 6.345 45.7562
7/14/2021 7:00:00 AM 6.3418 43.5381
7/14/2021 7:15:00 AM 6.34 45.6682
7/14/2021 7:30:00 AM 6.337 43.3352
7/14/2021 7:45:00 AM 6.3365 35.1179
7/14/2021 8:00:00 AM 6.3332 34.4253
7/14/2021 8:15:00 AM 6.3314 35.5833
7/14/2021 8:30:00 AM 6.3288 36.3946
7/14/2021 8:45:00 AM 6.3252 37.4
7/14/2021 9:00:00 AM 6.327 37.8666
7/14/2021 9:15:00 AM 6.3259 57.0625
7/14/2021 9:30:00 AM 6.3269 52.2508
7/14/2021 9:45:00 AM 6.3277 18.7953
7/14/2021 10:00:00 AM 6.3272 12.2696
7/14/2021 10:15:00 AM 6.3267 15.8791
7/14/2021 10:30:00 AM 6.3262 12.6917
7/14/2021 10:45:00 AM 6.3266 10.1141
7/14/2021 11:00:00 AM 6.3271 8.7747
7/14/2021 11:15:00 AM 6.327 14.8507
7/14/2021 11:30:00 AM 6.3267 13.6637
7/14/2021 11:45:00 AM 6.3252 13.4
7/14/2021 12:00:00 PM 6.3269 10.4823
7/14/2021 12:15:00 PM 6.3271 8.7942
7/14/2021 12:30:00 PM 6.3273 7.3799
7/14/2021 12:45:00 PM 6.327 16.9443
7/14/2021 1:00:00 PM 6.3277 10.8306
7/14/2021 1:15:00 PM 6.3303 15.4367
7/14/2021 1:30:00 PM 6.3323 12.1551
7/14/2021 1:45:00 PM 6.3343 9.2378
7/14/2021 2:00:00 PM 6.3353 7.7529
7/14/2021 2:15:00 PM 6.3368 12.9771
7/14/2021 2:30:00 PM 6.3402 10.3002
7/14/2021 2:45:00 PM 6.3419 11.6102
7/14/2021 3:00:00 PM 6.3446 9.7613
7/14/2021 3:15:00 PM 6.3465 32.4479
7/14/2021 3:30:00 PM 6.349 28.6115
7/14/2021 3:45:00 PM 6.3567 28.927
7/14/2021 4:00:00 PM 6.364 29.1566
7/14/2021 4:15:00 PM 6.3728 28.4977
7/14/2021 4:30:00 PM 6.385 47.5982
7/14/2021 4:45:00 PM 6.405 169.205
7/14/2021 5:00:00 PM 6.4224 309.4571
7/14/2021 5:15:00 PM 6.4297 401.4832
7/14/2021 5:30:00 PM 6.4301 394.4298
7/14/2021 5:45:00 PM 6.4303 340.1201
7/14/2021 6:00:00 PM 6.4299 267.1395
7/14/2021 6:15:00 PM 6.43 204.0787
7/14/2021 6:30:00 PM 6.4296 169.3574
7/14/2021 6:45:00 PM 6.4297 126.315
7/14/2021 7:00:00 PM 6.4263 98.5243
7/14/2021 7:15:00 PM 6.4246 80.6361
7/14/2021 7:30:00 PM 6.4251 68.6734
7/14/2021 7:45:00 PM 6.4271 60.9057
7/14/2021 8:00:00 PM 6.4289 54.652
7/14/2021 8:15:00 PM 6.429 49.9778
7/14/2021 8:30:00 PM 6.4295 46.4671
7/14/2021 8:45:00 PM 6.4294 44.1016
7/14/2021 9:00:00 PM 6.43 42.1366
7/14/2021 9:15:00 PM 6.4329 40.4716
7/14/2021 9:30:00 PM 6.4338 39.73
7/14/2021 9:45:00 PM 6.4305 68.0697
7/14/2021 10:00:00 PM 6.44 55.7031
7/14/2021 10:15:00 PM 6.4467 47.1738
7/14/2021 10:30:00 PM 6.4491 41.5904
7/14/2021 10:45:00 PM 6.4517 37.9163
7/14/2021 11:00:00 PM 6.4533 37.2587
7/14/2021 11:15:00 PM 6.4541 36.0776
7/14/2021 11:30:00 PM 6.4561 33.5097
7/14/2021 11:45:00 PM 6.458 31.423
7/15/2021 12:00:00 AM 6.4597 31.1651
7/15/2021 12:15:00 AM 6.4633 30.1439
7/15/2021 12:30:00 AM 6.4636 29.6843
7/15/2021 12:45:00 AM 6.4641 27.9158
7/15/2021 1:00:00 AM 6.4676 28.2295
7/15/2021 1:15:00 AM 6.469 28.0083
7/15/2021 1:30:00 AM 6.4693 27.5522
7/15/2021 1:45:00 AM 6.4736 26.6559
7/15/2021 2:00:00 AM 6.4732 26.2097
7/15/2021 2:15:00 AM 6.4755 26.4149
7/15/2021 2:30:00 AM 6.4784 26.8045
7/15/2021 2:45:00 AM 6.4786 26.5842
7/15/2021 3:00:00 AM 6.4782 28.1153
7/15/2021 3:15:00 AM 6.4783 29.4651
7/15/2021 3:30:00 AM 6.4788 30.5879
7/15/2021 3:45:00 AM 6.4791 29.5977
7/15/2021 4:00:00 AM 6.4819 28.6086
7/15/2021 4:15:00 AM 6.4826 27.6372
7/15/2021 4:30:00 AM 6.4814 26.0539
7/15/2021 4:45:00 AM 6.4733 21.6565
7/15/2021 5:00:00 AM 6.4732 19.9954
7/15/2021 5:15:00 AM 6.4739 20.455
7/15/2021 5:30:00 AM 6.4753 20.7286
7/15/2021 5:45:00 AM 6.4773 21.1556
7/15/2021 6:00:00 AM 6.4784 21.5557
7/15/2021 6:15:00 AM 6.4784 21.3064
7/15/2021 6:30:00 AM 6.4781 20.7626
7/15/2021 6:45:00 AM 6.4779 20.0152
7/15/2021 7:00:00 AM 6.4783 20.2519
7/15/2021 7:15:00 AM 6.4784 22.3364
7/15/2021 7:30:00 AM 6.4785 23.7711
7/15/2021 7:45:00 AM 6.4768 23.1417
7/15/2021 8:00:00 AM 6.4776 22.0706
7/15/2021 8:15:00 AM 6.4781 19.6289
7/15/2021 8:30:00 AM 6.4785 18.8032
7/15/2021 8:45:00 AM 6.4764 18.1
7/15/2021 9:00:00 AM 6.4783 17.1369
7/15/2021 9:15:00 AM 6.4784 16.2169
7/15/2021 9:30:00 AM 6.479 15.8173
7/15/2021 9:45:00 AM 6.4782 15.8528
7/15/2021 10:00:00 AM 6.4785 15.881
7/15/2021 10:15:00 AM 6.4784 16.3343
7/15/2021 10:30:00 AM 6.4786 18.3876
7/15/2021 10:45:00 AM 6.4784 20.2519
7/15/2021 11:00:00 AM 6.4785 20.1036
7/15/2021 11:15:00 AM 6.4784 19.7372
7/15/2021 11:30:00 AM 6.4783 19.7641
7/15/2021 11:45:00 AM 6.475 19.7
7/15/2021 12:00:00 PM 6.479 19.6893
7/15/2021 12:15:00 PM 6.4812 19.7116
7/15/2021 12:30:00 PM 6.4831 19.7476
7/15/2021 12:45:00 PM 6.4834 19.3587
7/15/2021 1:00:00 PM 6.4837 19.0413
7/15/2021 1:15:00 PM 6.4837 18.9513
7/15/2021 1:30:00 PM 6.4839 18.9861
7/15/2021 1:45:00 PM 6.4831 18.9522
7/15/2021 2:00:00 PM 6.4832 19.2135
7/15/2021 2:15:00 PM 6.4832 18.6443
7/15/2021 2:30:00 PM 6.4829 18.606
7/15/2021 2:45:00 PM 6.4826 19.277
7/15/2021 3:00:00 PM 6.4829 19.5843
7/15/2021 3:15:00 PM 6.4833 19.0027
7/15/2021 3:30:00 PM 6.4835 18.8874
7/15/2021 3:45:00 PM 6.4851 18.744
7/15/2021 4:00:00 PM 6.4863 18.6581
7/15/2021 4:15:00 PM 6.4874 18.478
7/15/2021 4:30:00 PM 6.4879 18.2653
7/15/2021 4:45:00 PM 6.4879 18.1133
7/15/2021 5:00:00 PM 6.4884 17.9983
7/15/2021 5:15:00 PM 6.4898 17.8669
7/15/2021 5:30:00 PM 6.4918 18.034
7/15/2021 5:45:00 PM 6.4946 17.8
7/15/2021 6:00:00 PM 6.4917 17.6768
7/15/2021 6:15:00 PM 6.4904 25.3599
7/15/2021 6:30:00 PM 6.491 19.6958
7/15/2021 6:45:00 PM 6.4959 16.7484
7/15/2021 7:00:00 PM 6.5004 16.143
7/15/2021 7:15:00 PM 6.5028 15.9683
7/15/2021 7:30:00 PM 6.5023 16.3726
7/15/2021 7:45:00 PM 6.5058 18.493
7/15/2021 8:00:00 PM 6.5072 19.9131
7/15/2021 8:15:00 PM 6.5068 20.4597
7/15/2021 8:30:00 PM 6.5072 19.5437
7/15/2021 8:45:00 PM 6.5044 20.8001
7/15/2021 9:00:00 PM 6.5071 20.2461
7/15/2021 9:15:00 PM 6.5071 16.9653
7/15/2021 9:30:00 PM 6.5074 16.2932
7/15/2021 9:45:00 PM 6.507 18.3603
7/15/2021 10:00:00 PM 6.5073 18.0534
7/15/2021 10:15:00 PM 6.5069 18.5235
7/15/2021 10:30:00 PM 6.5075 16.5864
7/15/2021 10:45:00 PM 6.5076 16.6636
7/15/2021 11:00:00 PM 6.5072 17.4041
7/15/2021 11:15:00 PM 6.5097 18.5723
7/15/2021 11:30:00 PM 6.5104 17.1566
7/15/2021 11:45:00 PM 6.5142 16.6
7/16/2021 12:00:00 AM 6.5122 16.0808
7/16/2021 12:15:00 AM 6.5119 20.1086
7/16/2021 12:30:00 AM 6.5119 20.1459
7/16/2021 12:45:00 AM 6.5146 19.8091
7/16/2021 1:00:00 AM 6.5132 17.1134
7/16/2021 1:15:00 AM 6.5125 18.7099
7/16/2021 1:30:00 AM 6.5108 16.4568
7/16/2021 1:45:00 AM 6.5119 19.9462
7/16/2021 2:00:00 AM 6.517 20.3035
7/16/2021 2:15:00 AM 6.5159 19.8753
7/16/2021 2:30:00 AM 6.5129 20.1853
7/16/2021 2:45:00 AM 6.51 20.5
7/16/2021 3:00:00 AM 6.5133 17.0836
7/16/2021 3:15:00 AM 6.5163 16.8162
7/16/2021 3:30:00 AM 6.5169 20.2976
7/16/2021 3:45:00 AM 6.5104 19.9831
7/16/2021 4:00:00 AM 6.4956 19.099
7/16/2021 4:15:00 AM 6.4963 18.487
7/16/2021 4:30:00 AM 6.4961 18.6622
7/16/2021 4:45:00 AM 6.4972 18.5453
7/16/2021 5:00:00 AM 6.5002 18.5993
7/16/2021 5:15:00 AM 6.5071 18.4753
7/16/2021 5:30:00 AM 6.5104 18.9576
7/16/2021 5:45:00 AM 6.5142 19.4
7/16/2021 6:00:00 AM 6.5122 18.4216
7/16/2021 6:15:00 AM 6.5147 20.3784
7/16/2021 6:30:00 AM 6.5173 20.1031
7/16/2021 6:45:00 AM 6.5172 20.0721
7/16/2021 7:00:00 AM 6.5174 19.8937
7/16/2021 7:15:00 AM 6.5189 19.0102
7/16/2021 7:30:00 AM 6.5215 17.9552
7/16/2021 7:45:00 AM 6.5223 17.7051
7/16/2021 8:00:00 AM 6.5225 17.5951
7/16/2021 8:15:00 AM 6.5261 17.1252
7/16/2021 8:30:00 AM 6.5266 16.9782
7/16/2021 8:45:00 AM 6.5282 16.9
7/16/2021 9:00:00 AM 6.531 16.578
7/16/2021 9:15:00 AM 6.5315 16.5785
7/16/2021 9:30:00 AM 6.5346 15.9576
7/16/2021 9:45:00 AM 6.5369 15.9905
7/16/2021 10:00:00 AM 6.5406 16.3937
7/16/2021 10:15:00 AM 6.542 16.2551
7/16/2021 10:30:00 AM 6.5459 16.0891
7/16/2021 10:45:00 AM 6.5486 16.2112
7/16/2021 11:00:00 AM 6.5515 16.0244
7/16/2021 11:15:00 AM 6.5547 15.5191
7/16/2021 11:30:00 AM 6.5565 15.2896
7/16/2021 11:45:00 AM 6.5576 15.1
7/16/2021 12:00:00 PM 6.5605 15.3563
7/16/2021 12:15:00 PM 6.563 15.1048
7/16/2021 12:30:00 PM 6.5653 14.5506
7/16/2021 12:45:00 PM 6.5657 14.4807
7/16/2021 1:00:00 PM 6.5692 14.2505
7/16/2021 1:15:00 PM 6.5704 14.2929
7/16/2021 1:30:00 PM 6.5747 14.4112
7/16/2021 1:45:00 PM 6.5751 14.2227
7/16/2021 2:00:00 PM 6.5752 14.2829
7/16/2021 2:15:00 PM 6.5754 14.1352
7/16/2021 2:30:00 PM 6.5795 13.841
7/16/2021 2:45:00 PM 6.5793 13.839
7/16/2021 3:00:00 PM 6.5824 13.791
7/16/2021 3:15:00 PM 6.5843 13.2593
7/16/2021 3:30:00 PM 6.5844 13.0491
7/16/2021 3:45:00 PM 6.5852 13.206
7/16/2021 4:00:00 PM 6.5843 12.9312
7/16/2021 4:15:00 PM 6.5855 12.6217
7/16/2021 4:30:00 PM 6.5889 12.6006
7/16/2021 4:45:00 PM 6.5895 12.428
7/16/2021 5:00:00 PM 6.5895 12.1381
7/16/2021 5:15:00 PM 6.5892 12.6629
7/16/2021 5:30:00 PM 6.5895 13.0205
7/16/2021 5:45:00 PM 6.587 13
7/16/2021 6:00:00 PM 6.5895 12.1942
7/16/2021 6:15:00 PM 6.5894 12.0423
7/16/2021 6:30:00 PM 6.5895 12.0101
7/16/2021 6:45:00 PM 6.5896 12.0328
7/16/2021 7:00:00 PM 6.5895 12.5606
7/16/2021 7:15:00 PM 6.5892 13.138
7/16/2021 7:30:00 PM 6.5887 13.8427
7/16/2021 7:45:00 PM 6.5875 13.0662
7/16/2021 8:00:00 PM 6.5864 12.6286
7/16/2021 8:15:00 PM 6.5848 13.0215
7/16/2021 8:30:00 PM 6.5847 13.7164
7/16/2021 8:45:00 PM 6.5828 13.8
7/16/2021 9:00:00 PM 6.5831 14.804
7/16/2021 9:15:00 PM 6.5826 13.9084
7/16/2021 9:30:00 PM 6.5807 13.5335
7/16/2021 9:45:00 PM 6.5797 14.1671
7/16/2021 10:00:00 PM 6.5782 15.7404
7/16/2021 10:15:00 PM 6.5752 15.1134
7/16/2021 10:30:00 PM 6.5748 14.1729
7/16/2021 10:45:00 PM 6.5698 19.6416
7/16/2021 11:00:00 PM 6.5717 15.8868
7/16/2021 11:15:00 PM 6.5751 14.1692
7/16/2021 11:30:00 PM 6.5751 12.5574
7/16/2021 11:45:00 PM 6.5758 12.6
7/17/2021 12:00:00 AM 6.5745 35.1347
7/17/2021 12:15:00 AM 6.5749 17.7251
7/17/2021 12:30:00 AM 6.5748 17.3218
7/17/2021 12:45:00 AM 6.575 17.1451
7/17/2021 1:00:00 AM 6.5743 16.4576
7/17/2021 1:15:00 AM 6.575 16.3602
7/17/2021 1:30:00 AM 6.5743 16.2343
7/17/2021 1:45:00 AM 6.5738 17.6716
7/17/2021 2:00:00 AM 6.572 17.1862
7/17/2021 2:15:00 AM 6.5704 16.4934
7/17/2021 2:30:00 AM 6.5709 16.2058
7/17/2021 2:45:00 AM 6.5716 16.1
7/17/2021 3:00:00 AM 6.5732 18.5655
7/17/2021 3:15:00 AM 6.564 16.9455
7/17/2021 3:30:00 AM 6.5606 15.1201
7/17/2021 3:45:00 AM 6.5607 14.2426
7/17/2021 4:00:00 AM 6.5604 14.3252
7/17/2021 4:15:00 AM 6.5605 14.1401
7/17/2021 4:30:00 AM 6.561 13.9876
7/17/2021 4:45:00 AM 6.5604 14.3508
7/17/2021 5:00:00 AM 6.5614 14.7646
7/17/2021 5:15:00 AM 6.5635 16.5843
7/17/2021 5:30:00 AM 6.5626 16.3721
7/17/2021 5:45:00 AM 6.559 15.8
7/17/2021 6:00:00 AM 6.5638 14.7788
7/17/2021 6:15:00 AM 6.5647 14.5448
7/17/2021 6:30:00 AM 6.5633 14.5571
7/17/2021 6:45:00 AM 6.5644 14.1544
7/17/2021 7:00:00 AM 6.5649 13.8761
7/17/2021 7:15:00 AM 6.5655 13.5282
7/17/2021 7:30:00 AM 6.565 13.505
7/17/2021 7:45:00 AM 6.5652 13.4158
7/17/2021 8:00:00 AM 6.565 12.9474
7/17/2021 8:15:00 AM 6.5654 13.1441
7/17/2021 8:30:00 AM 6.5651 13.0383
7/17/2021 8:45:00 AM 6.566 13.5
7/17/2021 9:00:00 AM 6.5656 12.7467
7/17/2021 9:15:00 AM 6.5659 12.7478
7/17/2021 9:30:00 AM 6.566 12.5741
7/17/2021 9:45:00 AM 6.5668 12.6787
7/17/2021 10:00:00 AM 6.5677 12.2124
7/17/2021 10:15:00 AM 6.5703 12.1357
7/17/2021 10:30:00 AM 6.5697 13.4144
7/17/2021 10:45:00 AM 6.5701 14.9909
7/17/2021 11:00:00 AM 6.5698 14.89
7/17/2021 11:15:00 AM 6.5699 13.751
7/17/2021 11:30:00 AM 6.5701 12.5671
7/17/2021 11:45:00 AM 6.5688 12.9
7/17/2021 12:00:00 PM 6.5704 13.7848
7/17/2021 12:15:00 PM 6.5737 15.1744
7/17/2021 12:30:00 PM 6.5735 15.8831
7/17/2021 12:45:00 PM 6.5741 13.8889
7/17/2021 1:00:00 PM 6.5755 12.9392
7/17/2021 1:15:00 PM 6.5791 12.9101
7/17/2021 1:30:00 PM 6.5837 12.1468
7/17/2021 1:45:00 PM 6.5881 13.6088
7/17/2021 2:00:00 PM 6.5907 12.8622
7/17/2021 2:15:00 PM 6.5941 11.8866
7/17/2021 2:30:00 PM 6.595 11.5008
7/17/2021 2:45:00 PM 6.5993 11.3667
7/17/2021 3:00:00 PM 6.6006 11.2301
7/17/2021 3:15:00 PM 6.6039 11.3446
7/17/2021 3:30:00 PM 6.6093 11.4287
7/17/2021 3:45:00 PM 6.6129 11.1018
7/17/2021 4:00:00 PM 6.6136 11.1095
7/17/2021 4:15:00 PM 6.6181 11.1171
7/17/2021 4:30:00 PM 6.6224 10.9767
7/17/2021 4:45:00 PM 6.6267 11.0339
7/17/2021 5:00:00 PM 6.6306 11.199
7/17/2021 5:15:00 PM 6.6341 11.6631
7/17/2021 5:30:00 PM 6.6374 11.3344
7/17/2021 5:45:00 PM 6.636 11.4
7/17/2021 6:00:00 PM 6.6432 11.0349
7/17/2021 6:15:00 PM 6.6423 11.7885
7/17/2021 6:30:00 PM 6.643 11.8825
7/17/2021 6:45:00 PM 6.6455 12.0393
7/17/2021 7:00:00 PM 6.6475 13.2715
7/17/2021 7:15:00 PM 6.6542 61.0302
7/17/2021 7:30:00 PM 6.6322 93.208
7/17/2021 7:45:00 PM 6.6278 67.1923
7/17/2021 8:00:00 PM 6.6354 93.7007
7/17/2021 8:15:00 PM 6.6474 822.0685
7/17/2021 8:30:00 PM 6.6334 657.4471
7/17/2021 8:45:00 PM 6.6248 657.5
7/17/2021 9:00:00 PM 6.6055 657.4713
7/17/2021 9:15:00 PM 6.6037 657.4511
7/17/2021 9:30:00 PM 6.6101 657.4913
7/17/2021 9:45:00 PM 6.6177 657.4824
7/17/2021 10:00:00 PM 6.6285 657.4857
7/17/2021 10:15:00 PM 6.6403 657.4914
7/17/2021 10:30:00 PM 6.6494 657.4783
7/17/2021 10:45:00 PM 6.6564 657.4843
7/17/2021 11:00:00 PM 6.6543 657.4943
7/17/2021 11:15:00 PM 6.6429 657.4838
7/17/2021 11:30:00 PM 6.6233 657.4772
7/17/2021 11:45:00 PM 6.615 657.4001
7/18/2021 12:00:00 AM 6.5773 657.4852
7/18/2021 12:15:00 AM 6.5577 657.4791
7/18/2021 12:30:00 AM 6.5428 657.4944
7/18/2021 12:45:00 AM 6.5338 788.5252
7/18/2021 1:00:00 AM 6.5305 778.3903
7/18/2021 1:15:00 AM 6.5273 663.8877
7/18/2021 1:30:00 AM 6.526 612.6425
7/18/2021 1:45:00 AM 6.522 600.3451
7/18/2021 2:00:00 AM 6.515 607.7722
7/18/2021 2:15:00 AM 6.5077 623.7216
7/18/2021 2:30:00 AM 6.4982 635.244
7/18/2021 2:45:00 AM 6.489 641.5999
7/18/2021 3:00:00 AM 6.4774 657.447
7/18/2021 3:15:00 AM 6.4683 652.8828
7/18/2021 3:30:00 AM 6.4588 638.2982
7/18/2021 3:45:00 AM 6.4518 624.6265
7/18/2021 4:00:00 AM 6.4451 596.5227
7/18/2021 4:15:00 AM 6.4389 566.2062
7/18/2021 4:30:00 AM 6.4325 534.5146
7/18/2021 4:45:00 AM 6.428 517.7398
7/18/2021 5:00:00 AM 6.4225 508.488
7/18/2021 5:15:00 AM 6.4162 497.0483
7/18/2021 5:30:00 AM 6.4095 482.7882
7/18/2021 5:45:00 AM 6.4078 473.9001
7/18/2021 6:00:00 AM 6.3969 437.6737
7/18/2021 6:15:00 AM 6.3912 409.6526
7/18/2021 6:30:00 AM 6.3871 378.2323
7/18/2021 6:45:00 AM 6.3853 345.5589
7/18/2021 7:00:00 AM 6.3852 313.1066
7/18/2021 7:15:00 AM 6.3847 322.884
7/18/2021 7:30:00 AM 6.3866 269.938
7/18/2021 7:45:00 AM 6.3898 233.7033
7/18/2021 8:00:00 AM 6.3957 207.4887
7/18/2021 8:15:00 AM 6.4028 186.2365
7/18/2021 8:30:00 AM 6.4094 169.7988
7/18/2021 8:45:00 AM 6.412 161.8001
7/18/2021 9:00:00 AM 6.4257 139.7467
7/18/2021 9:15:00 AM 6.4355 125.0361
7/18/2021 9:30:00 AM 6.4446 113.8457
7/18/2021 9:45:00 AM 6.4549 109.2408
7/18/2021 10:00:00 AM 6.4665 102.9706
7/18/2021 10:15:00 AM 6.4774 95.5041
7/18/2021 10:30:00 AM 6.4873 87.871
7/18/2021 10:45:00 AM 6.497 82.4769
7/18/2021 11:00:00 AM 6.5068 76.0373
7/18/2021 11:15:00 AM 6.5164 73.4245
7/18/2021 11:30:00 AM 6.5247 69.5909
7/18/2021 11:45:00 AM 6.531 70.8
7/18/2021 12:00:00 PM 6.5435 65.5728
7/18/2021 12:15:00 PM 6.5532 66.7118
7/18/2021 12:30:00 PM 6.5614 67.3327
7/18/2021 12:45:00 PM 6.5708 69.7657
7/18/2021 1:00:00 PM 6.579 73.33
7/18/2021 1:15:00 PM 6.5863 79.5033
7/18/2021 1:30:00 PM 6.592 82.7884
7/18/2021 1:45:00 PM 6.5936 89.6204
7/18/2021 2:00:00 PM 6.5941 99.4501
7/18/2021 2:15:00 PM 6.5938 108.8661
7/18/2021 2:30:00 PM 6.5894 117.162
7/18/2021 2:45:00 PM 6.5864 125.6096
7/18/2021 3:00:00 PM 6.5804 130.8071
7/18/2021 3:15:00 PM 6.5736 137.0093
7/18/2021 3:30:00 PM 6.5649 141.1431
7/18/2021 3:45:00 PM 6.5547 145.2709
7/18/2021 4:00:00 PM 6.5434 148.9965
7/18/2021 4:15:00 PM 6.5312 153.3956
7/18/2021 4:30:00 PM 6.5196 159.0397
7/18/2021 4:45:00 PM 6.5079 160.9467
7/18/2021 5:00:00 PM 6.4977 162.721
7/18/2021 5:15:00 PM 6.4874 163.4647
7/18/2021 5:30:00 PM 6.4792 165.1442
7/18/2021 5:45:00 PM 6.4708 168.3999
7/18/2021 6:00:00 PM 6.4657 175.3592
7/18/2021 6:15:00 PM 6.46 183.3751
7/18/2021 6:30:00 PM 6.4542 191.5873
7/18/2021 6:45:00 PM 6.4497 203.2299
7/18/2021 7:00:00 PM 6.4462 217.3075
7/18/2021 7:15:00 PM 6.4443 229.3595
7/18/2021 7:30:00 PM 6.4413 238.2511
7/18/2021 7:45:00 PM 6.4394 246.0568
7/18/2021 8:00:00 PM 6.4391 248.4019
7/18/2021 8:15:00 PM 6.4386 248.8653
7/18/2021 8:30:00 PM 6.4376 244.7934
7/18/2021 8:45:00 PM 6.4358 240.9001
7/18/2021 9:00:00 PM 6.4394 227.9219
7/18/2021 9:15:00 PM 6.4391 217.283
7/18/2021 9:30:00 PM 6.4408 205.9658
7/18/2021 9:45:00 PM 6.443 192.8232
7/18/2021 10:00:00 PM 6.444 180.9264
7/18/2021 10:15:00 PM 6.4446 169.7795
7/18/2021 10:30:00 PM 6.4491 157.0647
7/18/2021 10:45:00 PM 6.4491 147.9874
7/18/2021 11:00:00 PM 6.4517 137.6008
7/18/2021 11:15:00 PM 6.4539 129.4192
7/18/2021 11:30:00 PM 6.4541 121.5545
7/18/2021 11:45:00 PM 6.4526 118.9999
7/19/2021 12:00:00 AM 6.4588 108.4015
7/19/2021 12:15:00 AM 6.4611 102.3126
7/19/2021 12:30:00 AM 6.4636 97.0896
7/19/2021 12:45:00 AM 6.4664 92.7904
7/19/2021 1:00:00 AM 6.4683 91.5371
7/19/2021 1:15:00 AM 6.4686 89.7413
7/19/2021 1:30:00 AM 6.4685 89.1637
7/19/2021 1:45:00 AM 6.4664 87.9407
7/19/2021 2:00:00 AM 6.464 89.3054
7/19/2021 2:15:00 AM 6.4636 90.7567
7/19/2021 2:30:00 AM 6.4605 91.5934
7/19/2021 2:45:00 AM 6.4554 92.1999
7/19/2021 3:00:00 AM 6.4562 96.3794
7/19/2021 3:15:00 AM 6.4541 98.6638
7/19/2021 3:30:00 AM 6.4536 98.818
7/19/2021 3:45:00 AM 6.4538 101.7816
7/19/2021 4:00:00 AM 6.4513 104.5055
7/19/2021 4:15:00 AM 6.449 107.1185
7/19/2021 4:30:00 AM 6.4477 108.4521
7/19/2021 4:45:00 AM 6.4445 111.4025
7/19/2021 5:00:00 AM 6.4433 115.5463
7/19/2021 5:15:00 AM 6.4412 118.9296
7/19/2021 5:30:00 AM 6.439 123.2708
7/19/2021 5:45:00 AM 6.4414 125.6999
7/19/2021 6:00:00 AM 6.4391 132.2326
7/19/2021 6:15:00 AM 6.4393 141.3596
7/19/2021 6:30:00 AM 6.4395 148.5728
7/19/2021 6:45:00 AM 6.4395 156.2674
7/19/2021 7:00:00 AM 6.4383 167.0569
7/19/2021 7:15:00 AM 6.4355 179.5998
7/19/2021 7:30:00 AM 6.4354 193.9829
7/19/2021 7:45:00 AM 6.434 211.2661
7/19/2021 8:00:00 AM 6.4346 245.7261
7/19/2021 8:15:00 AM 6.4343 257.8331
7/19/2021 8:30:00 AM 6.4342 261.7028
7/19/2021 8:45:00 AM 6.4316 266.7
7/19/2021 9:00:00 AM 6.4301 291.4826
7/19/2021 9:15:00 AM 6.4294 306.5911
7/19/2021 9:30:00 AM 6.4246 319.6608
7/19/2021 9:45:00 AM 6.4248 330.4291
7/19/2021 10:00:00 AM 6.4201 335.3804
7/19/2021 10:15:00 AM 6.4162 342.4311
7/19/2021 10:30:00 AM 6.4135 348.4438
7/19/2021 10:45:00 AM 6.4103 355.3453
7/19/2021 11:00:00 AM 6.4085 360.9683
7/19/2021 11:15:00 AM 6.4046 370.0284
7/19/2021 11:30:00 AM 6.4005 379.3797
7/19/2021 11:45:00 AM 6.4036 385.6
7/19/2021 12:00:00 PM 6.3941 403.3019
7/19/2021 12:15:00 PM 6.3904 417.5176
7/19/2021 12:30:00 PM 6.3868 431.4097
7/19/2021 12:45:00 PM 6.384 442.8141
7/19/2021 1:00:00 PM 6.3806 454.1608
7/19/2021 1:15:00 PM 6.3769 465.3521
7/19/2021 1:30:00 PM 6.3752 479.9623
7/19/2021 1:45:00 PM 6.3716 488.2634
7/19/2021 2:00:00 PM 6.3697 501.8575
7/19/2021 2:15:00 PM 6.3663 513.9406
7/19/2021 2:30:00 PM 6.3657 519.9167
7/19/2021 2:45:00 PM 6.3617 523.9344
7/19/2021 3:00:00 PM 6.3597 534.1908
7/19/2021 3:15:00 PM 6.3562 544.7044
7/19/2021 3:30:00 PM 6.3566 547.2603
7/19/2021 3:45:00 PM 6.3563 544.1096
7/19/2021 4:00:00 PM 6.3567 537.2647
7/19/2021 4:15:00 PM 6.3565 529.3144
7/19/2021 4:30:00 PM 6.3577 522.4992
7/19/2021 4:45:00 PM 6.3579 517.9346
7/19/2021 5:00:00 PM 6.3607 514.0908
7/19/2021 5:15:00 PM 6.3602 502.7067
7/19/2021 5:30:00 PM 6.36 488.593
7/19/2021 5:45:00 PM 6.3574 484.1
7/19/2021 6:00:00 PM 6.3584 462.7864
7/19/2021 6:15:00 PM 6.3594 451.465
7/19/2021 6:30:00 PM 6.358 439.5301
7/19/2021 6:45:00 PM 6.3568 426.402
7/19/2021 7:00:00 PM 6.3562 411.5978
7/19/2021 7:15:00 PM 6.3562 397.92
7/19/2021 7:30:00 PM 6.3562 383.0397
7/19/2021 7:45:00 PM 6.3561 372.6573
7/19/2021 8:00:00 PM 6.3564 358.342
7/19/2021 8:15:00 PM 6.3554 345.053
7/19/2021 8:30:00 PM 6.3543 332.3193
7/19/2021 8:45:00 PM 6.3546 327.2001
7/19/2021 9:00:00 PM 6.3517 309.5451
7/19/2021 9:15:00 PM 6.3512 299.2227
7/19/2021 9:30:00 PM 6.3509 288.1741
7/19/2021 9:45:00 PM 6.3497 280.4488
7/19/2021 10:00:00 PM 6.3508 272.6951
7/19/2021 10:15:00 PM 6.3487 263.4317
7/19/2021 10:30:00 PM 6.3468 254.9459
7/19/2021 10:45:00 PM 6.3465 247.0317
7/19/2021 11:00:00 PM 6.347 238.6586
7/19/2021 11:15:00 PM 6.3466 230.6714
7/19/2021 11:30:00 PM 6.3467 222.3055
7/19/2021 11:45:00 PM 6.3448 218.0001
7/20/2021 12:00:00 AM 6.3466 207.8762
7/20/2021 12:15:00 AM 6.3465 200.9349
7/20/2021 12:30:00 AM 6.3463 193.5862
7/20/2021 12:45:00 AM 6.3463 186.8699
7/20/2021 1:00:00 AM 6.3469 178.7521
7/20/2021 1:15:00 AM 6.3479 173.3289
7/20/2021 1:30:00 AM 6.3471 166.9316
7/20/2021 1:45:00 AM 6.3508 161.7666
7/20/2021 2:00:00 AM 6.3514 155.9671
7/20/2021 2:15:00 AM 6.3513 149.871
7/20/2021 2:30:00 AM 6.3516 145.4825
7/20/2021 2:45:00 AM 6.349 142.3001
7/20/2021 3:00:00 AM 6.3539 134.7088
7/20/2021 3:15:00 AM 6.3545 130.4614
7/20/2021 3:30:00 AM 6.3567 126.9151
7/20/2021 3:45:00 AM 6.3565 121.6608
7/20/2021 4:00:00 AM 6.3606 117.1332
7/20/2021 4:15:00 AM 6.3612 112.3579
7/20/2021 4:30:00 AM 6.3618 108.6846
7/20/2021 4:45:00 AM 6.3646 105.029
7/20/2021 5:00:00 AM 6.3661 101.3965
7/20/2021 5:15:00 AM 6.3657 98.9213
7/20/2021 5:30:00 AM 6.3693 96.1783
7/20/2021 5:45:00 AM 6.3728 95.6
7/20/2021 6:00:00 AM 6.3711 90.1183
7/20/2021 6:15:00 AM 6.3744 86.8343
7/20/2021 6:30:00 AM 6.3756 83.8543
7/20/2021 6:45:00 AM 6.3765 81.9707
7/20/2021 7:00:00 AM 6.379 80.6377
7/20/2021 7:15:00 AM 6.3805 79.4295
7/20/2021 7:30:00 AM 6.3825 77.2579
7/20/2021 7:45:00 AM 6.3857 75.4948
7/20/2021 8:00:00 AM 6.3861 74.4672
7/20/2021 8:15:00 AM 6.3883 72.903
7/20/2021 8:30:00 AM 6.3906 70.5841
7/20/2021 8:45:00 AM 6.391 69.5
7/20/2021 9:00:00 AM 6.3981 66.9605
7/20/2021 9:15:00 AM 6.4006 66.5653
7/20/2021 9:30:00 AM 6.4026 68.0116
7/20/2021 9:45:00 AM 6.4057 64.4652
7/20/2021 10:00:00 AM 6.4067 62.2787
7/20/2021 10:15:00 AM 6.41 60.9486
7/20/2021 10:30:00 AM 6.4128 59.0009
7/20/2021 10:45:00 AM 6.4152 57.8273
7/20/2021 11:00:00 AM 6.4173 56.7865
7/20/2021 11:15:00 AM 6.42 56.2713
7/20/2021 11:30:00 AM 6.4204 55.6034
7/20/2021 11:45:00 AM 6.426 55.3001
7/20/2021 12:00:00 PM 6.4253 54.2719
7/20/2021 12:15:00 PM 6.4274 54.0546
7/20/2021 12:30:00 PM 6.4298 51.9979
7/20/2021 12:45:00 PM 6.4306 51.0017
7/20/2021 1:00:00 PM 6.4344 50.3627
7/20/2021 1:15:00 PM 6.4344 48.6978
7/20/2021 1:30:00 PM 6.4383 47.8157
7/20/2021 1:45:00 PM 6.4395 46.5407
7/20/2021 2:00:00 PM 6.441 45.9308
7/20/2021 2:15:00 PM 6.4442 45.0028
7/20/2021 2:30:00 PM 6.4446 44.616
7/20/2021 2:45:00 PM 6.4443 44.4929
7/20/2021 3:00:00 PM 6.4465 44.24
7/20/2021 3:15:00 PM 6.4494 43.0167
7/20/2021 3:30:00 PM 6.45 42.5996
7/20/2021 3:45:00 PM 6.4531 41.9605
7/20/2021 4:00:00 PM 6.454 42.0023
7/20/2021 4:15:00 PM 6.4538 41.0252
7/20/2021 4:30:00 PM 6.4569 41.0361
7/20/2021 4:45:00 PM 6.4589 40.7951
7/20/2021 5:00:00 PM 6.4594 39.3696
7/20/2021 5:15:00 PM 6.4615 39.3599
7/20/2021 5:30:00 PM 6.4622 39.2038
7/20/2021 5:45:00 PM 6.4624 39.1
7/20/2021 6:00:00 PM 6.4652 39.6646
7/20/2021 6:15:00 PM 6.4672 39.0876
7/20/2021 6:30:00 PM 6.4692 38.6667
7/20/2021 6:45:00 PM 6.4687 37.6999
7/20/2021 7:00:00 PM 6.4688 48.3822
7/20/2021 7:15:00 PM 6.4705 57.2487
7/20/2021 7:30:00 PM 6.4698 42.2363
7/20/2021 7:45:00 PM 6.4732 37.5597
7/20/2021 8:00:00 PM 6.4733 36.6647
7/20/2021 8:15:00 PM 6.4736 35.2289
7/20/2021 8:30:00 PM 6.474 34.8693
7/20/2021 8:45:00 PM 6.475 34.9001
7/20/2021 9:00:00 PM 6.4734 34.6619
7/20/2021 9:15:00 PM 6.4733 34.6262
7/20/2021 9:30:00 PM 6.4738 38.9733
7/20/2021 9:45:00 PM 6.4824 46.2565
7/20/2021 10:00:00 PM 6.4931 51.8302
7/20/2021 10:15:00 PM 6.4974 48.9823
7/20/2021 10:30:00 PM 6.5036 46.4238
7/20/2021 10:45:00 PM 6.5143 51.5041
7/20/2021 11:00:00 PM 6.5307 221.493
7/20/2021 11:15:00 PM 6.5623 853.7733
7/20/2021 11:30:00 PM 6.587 877.9471
7/20/2021 11:45:00 PM 6.5968 877.9001
7/21/2021 12:00:00 AM 6.6212 877.9368
7/21/2021 12:15:00 AM 6.6355 877.9182
7/21/2021 12:30:00 AM 6.6388 877.9521
7/21/2021 12:45:00 AM 6.6383 877.9452
7/21/2021 1:00:00 AM 6.6361 877.9396
7/21/2021 1:15:00 AM 6.6326 877.9616
7/21/2021 1:30:00 AM 6.6301 935.699
7/21/2021 1:45:00 AM 6.6271 793.2458
7/21/2021 2:00:00 AM 6.6241 707.9407
7/21/2021 2:15:00 AM 6.6204 604.1592
7/21/2021 2:30:00 AM 6.6163 521.9961
7/21/2021 2:45:00 AM 6.6136 485.1
7/21/2021 3:00:00 AM 6.6054 383.3092
7/21/2021 3:15:00 AM 6.5993 329.1075
7/21/2021 3:30:00 AM 6.5943 276.8651
7/21/2021 3:45:00 AM 6.5874 234.0905
7/21/2021 4:00:00 AM 6.5809 203.9654
7/21/2021 4:15:00 AM 6.5758 193.7258
7/21/2021 4:30:00 AM 6.5706 194.4526
7/21/2021 4:45:00 AM 6.5651 203.7644
7/21/2021 5:00:00 AM 6.5577 210.623
7/21/2021 5:15:00 AM 6.5508 214.9246
7/21/2021 5:30:00 AM 6.5436 214.5085
7/21/2021 5:45:00 AM 6.5422 212.9
7/21/2021 6:00:00 AM 6.5306 199.9067
7/21/2021 6:15:00 AM 6.5248 189.6977
7/21/2021 6:30:00 AM 6.5186 179.1849
7/21/2021 6:45:00 AM 6.5145 169.2207
7/21/2021 7:00:00 AM 6.5115 158.2846
7/21/2021 7:15:00 AM 6.5071 149.5452
7/21/2021 7:30:00 AM 6.5035 140.6404
7/21/2021 7:45:00 AM 6.5024 130.7697
7/21/2021 8:00:00 AM 6.499 122.6885
7/21/2021 8:15:00 AM 6.4977 115.9355
7/21/2021 8:30:00 AM 6.4978 107.3477
7/21/2021 8:45:00 AM 6.4974 105.1
7/21/2021 9:00:00 AM 6.4976 92.7553
7/21/2021 9:15:00 AM 6.4975 85.6875
7/21/2021 9:30:00 AM 6.4976 79.4007
7/21/2021 9:45:00 AM 6.4974 75.1343
7/21/2021 10:00:00 AM 6.4985 69.167
7/21/2021 10:15:00 AM 6.5011 65.4226
7/21/2021 10:30:00 AM 6.5023 62.4162
7/21/2021 10:45:00 AM 6.5023 59.2372
7/21/2021 11:00:00 AM 6.5034 55.5221
7/21/2021 11:15:00 AM 6.507 52.8305
7/21/2021 11:30:00 AM 6.5115 50.3129
7/21/2021 11:45:00 AM 6.5086 49.1
7/21/2021 12:00:00 PM 6.5169 45.8622
7/21/2021 12:15:00 PM 6.5188 44.5338
7/21/2021 12:30:00 PM 6.5246 42.8367
7/21/2021 12:45:00 PM 6.5292 41.6684
7/21/2021 1:00:00 PM 6.5319 40.6741
7/21/2021 1:15:00 PM 6.5361 39.6134
7/21/2021 1:30:00 PM 6.5408 38.4757
7/21/2021 1:45:00 PM 6.5458 37.7044
7/21/2021 2:00:00 PM 6.5489 37.9869
7/21/2021 2:15:00 PM 6.5523 36.7446
7/21/2021 2:30:00 PM 6.5565 36.2504
7/21/2021 2:45:00 PM 6.5604 36.1406
7/21/2021 3:00:00 PM 6.5623 36.1855
7/21/2021 3:15:00 PM 6.5655 37.3879
7/21/2021 3:30:00 PM 6.5653 37.4219
7/21/2021 3:45:00 PM 6.5679 38.0672
7/21/2021 4:00:00 PM 6.5695 38.6211
7/21/2021 4:15:00 PM 6.5688 38.9959
7/21/2021 4:30:00 PM 6.5664 39.6801
7/21/2021 4:45:00 PM 6.5653 41.3844
7/21/2021 5:00:00 PM 6.5631 41.9663
7/21/2021 5:15:00 PM 6.5605 43.3131
7/21/2021 5:30:00 PM 6.5597 45.4076
7/21/2021 5:45:00 PM 6.5548 47.6
7/21/2021 6:00:00 PM 6.553 54.0927
7/21/2021 6:15:00 PM 6.5494 61.9387
7/21/2021 6:30:00 PM 6.5442 71.3796
7/21/2021 6:45:00 PM 6.538 84.5534
7/21/2021 7:00:00 PM 6.5303 98.7598
7/21/2021 7:15:00 PM 6.5219 112.9202
7/21/2021 7:30:00 PM 6.5115 128.0354
7/21/2021 7:45:00 PM 6.501 154.4234
7/21/2021 8:00:00 PM 6.4916 181.8467
7/21/2021 8:15:00 PM 6.482 168.4126
7/21/2021 8:30:00 PM 6.4707 170.2725
7/21/2021 8:45:00 PM 6.461 174.1
7/21/2021 9:00:00 PM 6.4506 177.1196
7/21/2021 9:15:00 PM 6.4423 177.1331
7/21/2021 9:30:00 PM 6.4332 175.2091
7/21/2021 9:45:00 PM 6.4273 170.6487
7/21/2021 10:00:00 PM 6.4218 165.4501
7/21/2021 10:15:00 PM 6.4176 159.5745
7/21/2021 10:30:00 PM 6.413 152.2544
7/21/2021 10:45:00 PM 6.4109 145.6173
7/21/2021 11:00:00 PM 6.4085 138.1994
7/21/2021 11:15:00 PM 6.4062 132.3383
7/21/2021 11:30:00 PM 6.4062 125.5137
7/21/2021 11:45:00 PM 6.4036 121.6
7/22/2021 12:00:00 AM 6.4057 111.8792
7/22/2021 12:15:00 AM 6.4062 107.5014
7/22/2021 12:30:00 AM 6.406 101.5721
7/22/2021 12:45:00 AM 6.4061 98.0856
7/22/2021 1:00:00 AM 6.4056 93.8595
7/22/2021 1:15:00 AM 6.406 90.6778
7/22/2021 1:30:00 AM 6.4061 86.7673
7/22/2021 1:45:00 AM 6.405 84.5303
7/22/2021 2:00:00 AM 6.4056 82.1352
7/22/2021 2:15:00 AM 6.4032 80.192
7/22/2021 2:30:00 AM 6.4005 77.6673
7/22/2021 2:45:00 AM 6.398 76.3001
7/22/2021 3:00:00 AM 6.401 73.7486
7/22/2021 3:15:00 AM 6.4007 72.4083
7/22/2021 3:30:00 AM 6.4013 70.2118
7/22/2021 3:45:00 AM 6.4014 69.1315
7/22/2021 4:00:00 AM 6.4017 67.2411
7/22/2021 4:15:00 AM 6.4013 65.8658
7/22/2021 4:30:00 AM 6.4011 64.072
7/22/2021 4:45:00 AM 6.4005 62.8242
7/22/2021 5:00:00 AM 6.4025 61.8632
7/22/2021 5:15:00 AM 6.4032 60.6012
7/22/2021 5:30:00 AM 6.405 59.3669
7/22/2021 5:45:00 AM 6.4078 58.5
7/22/2021 6:00:00 AM 6.4093 56.569
7/22/2021 6:15:00 AM 6.4107 54.9939
7/22/2021 6:30:00 AM 6.4138 54.2296
7/22/2021 6:45:00 AM 6.4175 53.9813
7/22/2021 7:00:00 AM 6.4209 53.3574
7/22/2021 7:15:00 AM 6.4248 52.1246
7/22/2021 7:30:00 AM 6.4296 50.9735
7/22/2021 7:45:00 AM 6.4333 50.7141
7/22/2021 8:00:00 AM 6.4375 49.9829
7/22/2021 8:15:00 AM 6.4425 48.1908
7/22/2021 8:30:00 AM 6.4468 48.1547
7/22/2021 8:45:00 AM 6.4512 47.3
7/22/2021 9:00:00 AM 6.4565 46.7476
7/22/2021 9:15:00 AM 6.4608 46.8015
7/22/2021 9:30:00 AM 6.4657 46.2716
7/22/2021 9:45:00 AM 6.4709 45.8928
7/22/2021 10:00:00 AM 6.4743 46.1429
7/22/2021 10:15:00 AM 6.4793 45.9058
7/22/2021 10:30:00 AM 6.4827 45.5671
7/22/2021 10:45:00 AM 6.4859 45.4204
7/22/2021 11:00:00 AM 6.4882 44.5259
7/22/2021 11:15:00 AM 6.4883 44.2766
7/22/2021 11:30:00 AM 6.4915 46.0353
7/22/2021 11:45:00 AM 6.4946 46.8999
7/22/2021 12:00:00 PM 6.4929 48.0199
7/22/2021 12:15:00 PM 6.4955 47.933
7/22/2021 12:30:00 PM 6.4976 48.7228
7/22/2021 12:45:00 PM 6.4981 49.3902
7/22/2021 1:00:00 PM 6.498 50.7037
7/22/2021 1:15:00 PM 6.4978 51.2022
7/22/2021 1:30:00 PM 6.4978 53.1327
7/22/2021 1:45:00 PM 6.4977 53.8826
7/22/2021 2:00:00 PM 6.4973 54.8999
7/22/2021 2:15:00 PM 6.4954 56.1565
7/22/2021 2:30:00 PM 6.4937 57.4599
7/22/2021 2:45:00 PM 6.4931 56.7788
7/22/2021 3:00:00 PM 6.4929 58.0803
7/22/2021 3:15:00 PM 6.4927 59.0802
7/22/2021 3:30:00 PM 6.493 60.0731
7/22/2021 3:45:00 PM 6.493 59.7333
7/22/2021 4:00:00 PM 6.493 60.3826
7/22/2021 4:15:00 PM 6.4929 60.2475
7/22/2021 4:30:00 PM 6.4929 61.5174
7/22/2021 4:45:00 PM 6.4928 61.322
7/22/2021 5:00:00 PM 6.4928 61.3866
7/22/2021 5:15:00 PM 6.4932 61.3122
7/22/2021 5:30:00 PM 6.4955 61.0092
7/22/2021 5:45:00 PM 6.4974 60.7001
7/22/2021 6:00:00 PM 6.4979 59.9821
7/22/2021 6:15:00 PM 6.4977 57.716
7/22/2021 6:30:00 PM 6.4974 57.6139
7/22/2021 6:45:00 PM 6.4979 57.2328
7/22/2021 7:00:00 PM 6.4997 56.5708
7/22/2021 7:15:00 PM 6.4991 56.3216
7/22/2021 7:30:00 PM 6.5004 56.1777
7/22/2021 7:45:00 PM 6.5003 56.066
7/22/2021 8:00:00 PM 6.5012 54.9951
7/22/2021 8:15:00 PM 6.5 54.3644
7/22/2021 8:30:00 PM 6.4997 53.5077
7/22/2021 8:45:00 PM 6.4988 53.3
7/22/2021 9:00:00 PM 6.4981 53.5334
7/22/2021 9:15:00 PM 6.4979 52.6466
7/22/2021 9:30:00 PM 6.4974 52.5395
7/22/2021 9:45:00 PM 6.4967 51.9222
7/22/2021 10:00:00 PM 6.4933 52.0741
7/22/2021 10:15:00 PM 6.4838 74.0743
7/22/2021 10:30:00 PM 6.4904 65.3891
7/22/2021 10:45:00 PM 6.4923 62.3769
7/22/2021 11:00:00 PM 6.4909 59.6508
7/22/2021 11:15:00 PM 6.4881 58.8567
7/22/2021 11:30:00 PM 6.4883 57.7288
7/22/2021 11:45:00 PM 6.489 56.9002
7/23/2021 12:00:00 AM 6.4837 55.2151
7/23/2021 12:15:00 AM 6.4833 53.435
7/23/2021 12:30:00 AM 6.4808 52.807
7/23/2021 12:45:00 AM 6.479 52.2182
7/23/2021 1:00:00 AM 6.479 51.624
7/23/2021 1:15:00 AM 6.4757 51.5169
7/23/2021 1:30:00 AM 6.4736 51.1481
7/23/2021 1:45:00 AM 6.4733 50.1838
7/23/2021 2:00:00 AM 6.4701 51.4619
7/23/2021 2:15:00 AM 6.4694 49.2645
7/23/2021 2:30:00 AM 6.4689 49.113
7/23/2021 2:45:00 AM 6.4694 50.4997
7/23/2021 3:00:00 AM 6.4684 47.4137
7/23/2021 3:15:00 AM 6.4678 46.4721
7/23/2021 3:30:00 AM 6.4672 45.4188
7/23/2021 3:45:00 AM 6.4672 45.2371
7/23/2021 4:00:00 AM 6.4648 71.3514
7/23/2021 4:15:00 AM 6.4627 47.8976
7/23/2021 4:30:00 AM 6.4536 43.1646
7/23/2021 4:45:00 AM 6.4473 38.7223
7/23/2021 5:00:00 AM 6.4439 36.8888
7/23/2021 5:15:00 AM 6.4402 35.213
7/23/2021 5:30:00 AM 6.4399 34.5481
7/23/2021 5:45:00 AM 6.4372 35.1
7/23/2021 6:00:00 AM 6.4349 36.9244
7/23/2021 6:15:00 AM 6.4344 37.2694
7/23/2021 6:30:00 AM 6.4354 36.7135
7/23/2021 6:45:00 AM 6.4367 37.1888
7/23/2021 7:00:00 AM 6.4398 38.1848
7/23/2021 7:15:00 AM 6.44 39.6655
7/23/2021 7:30:00 AM 6.4395 37.8569
7/23/2021 7:45:00 AM 6.4407 39.6206
7/23/2021 8:00:00 AM 6.4439 39.5019
7/23/2021 8:15:00 AM 6.4445 37.0203
7/23/2021 8:30:00 AM 6.4449 34.4442
7/23/2021 8:45:00 AM 6.447 33.9
7/23/2021 9:00:00 AM 6.4476 32.125
7/23/2021 9:15:00 AM 6.4532 46.7651
7/23/2021 9:30:00 AM 6.4583 54.2014
7/23/2021 9:45:00 AM 6.4589 34.7147
7/23/2021 10:00:00 AM 6.4587 30.9326
7/23/2021 10:15:00 AM 6.4567 30.2157
7/23/2021 10:30:00 AM 6.454 28.7492
7/23/2021 10:45:00 AM 6.4542 28.571
7/23/2021 11:00:00 AM 6.4542 27.3685
7/23/2021 11:15:00 AM 6.4521 27.5401
7/23/2021 11:30:00 AM 6.4499 28.1482
7/23/2021 11:45:00 AM 6.4484 27.7
7/23/2021 12:00:00 PM 6.4509 28.5395
7/23/2021 12:15:00 PM 6.4493 27.296
7/23/2021 12:30:00 PM 6.4494 25.7672
7/23/2021 12:45:00 PM 6.4494 26.0506
7/23/2021 1:00:00 PM 6.449 25.3849
7/23/2021 1:15:00 PM 6.4494 25.2455
7/23/2021 1:30:00 PM 6.4492 25.0266
7/23/2021 1:45:00 PM 6.4499 23.8408
7/23/2021 2:00:00 PM 6.4501 23.1898
7/23/2021 2:15:00 PM 6.4529 23.4488
7/23/2021 2:30:00 PM 6.4538 23.1955
7/23/2021 2:45:00 PM 6.454 22.8352
7/23/2021 3:00:00 PM 6.4545 22.5278
7/23/2021 3:15:00 PM 6.4567 21.8982
7/23/2021 3:30:00 PM 6.4589 22.1909
7/23/2021 3:45:00 PM 6.459 23.438
7/23/2021 4:00:00 PM 6.4588 25.621
7/23/2021 4:15:00 PM 6.4591 27.3669
7/23/2021 4:30:00 PM 6.4595 27.2894
7/23/2021 4:45:00 PM 6.459 26.7346
7/23/2021 5:00:00 PM 6.459 25.3772
7/23/2021 5:15:00 PM 6.4627 23.8182
7/23/2021 5:30:00 PM 6.4639 22.5801
7/23/2021 5:45:00 PM 6.4652 23.5
7/23/2021 6:00:00 PM 6.4691 21.7876
7/23/2021 6:15:00 PM 6.4722 21.2292
7/23/2021 6:30:00 PM 6.4737 20.9587
7/23/2021 6:45:00 PM 6.4744 21.4161
7/23/2021 7:00:00 PM 6.4784 20.835
7/23/2021 7:15:00 PM 6.4788 20.3477
7/23/2021 7:30:00 PM 6.482 19.8196
7/23/2021 7:45:00 PM 6.4834 19.5728
7/23/2021 8:00:00 PM 6.4832 19.2081
7/23/2021 8:15:00 PM 6.4864 19.2788
7/23/2021 8:30:00 PM 6.4881 18.7693
7/23/2021 8:45:00 PM 6.489 18.9
7/23/2021 9:00:00 PM 6.4885 19.511
7/23/2021 9:15:00 PM 6.4911 19.5208
7/23/2021 9:30:00 PM 6.4931 20.2263
7/23/2021 9:45:00 PM 6.4927 20.9298
7/23/2021 10:00:00 PM 6.4946 26.9695
7/23/2021 10:15:00 PM 6.4868 36.1758
7/23/2021 10:30:00 PM 6.4902 29.729
7/23/2021 10:45:00 PM 6.4938 25.4417
7/23/2021 11:00:00 PM 6.4971 23.9285
7/23/2021 11:15:00 PM 6.5003 23.1722
7/23/2021 11:30:00 PM 6.5021 22.7833
7/23/2021 11:45:00 PM 6.503 23.1001
7/24/2021 12:00:00 AM 6.5052 21.6873
7/24/2021 12:15:00 AM 6.5076 21.5138
7/24/2021 12:30:00 AM 6.507 20.8583
7/24/2021 12:45:00 AM 6.5071 20.8685
7/24/2021 1:00:00 AM 6.5092 21.547
7/24/2021 1:15:00 AM 6.512 21.37
7/24/2021 1:30:00 AM 6.5119 21.2559
7/24/2021 1:45:00 AM 6.5126 21.3382
7/24/2021 2:00:00 AM 6.5125 18.8442
7/24/2021 2:15:00 AM 6.5121 18.1628
7/24/2021 2:30:00 AM 6.515 18.7975
7/24/2021 2:45:00 AM 6.517 19.4
7/24/2021 3:00:00 AM 6.517 20.6643
7/24/2021 3:15:00 AM 6.517 19.9469
7/24/2021 3:30:00 AM 6.5181 18.9729
7/24/2021 3:45:00 AM 6.5212 17.8568
7/24/2021 4:00:00 AM 6.5213 17.586
7/24/2021 4:15:00 AM 6.5216 17.6429
7/24/2021 4:30:00 AM 6.5222 18.0399
7/24/2021 4:45:00 AM 6.5254 17.758
7/24/2021 5:00:00 AM 6.5265 17.4594
7/24/2021 5:15:00 AM 6.5265 18.4386
7/24/2021 5:30:00 AM 6.5296 18.0216
7/24/2021 5:45:00 AM 6.531 18.0001
7/24/2021 6:00:00 AM 6.5316 17.9657
7/24/2021 6:15:00 AM 6.5315 20.7287
7/24/2021 6:30:00 AM 6.5319 22.0469
7/24/2021 6:45:00 AM 6.5289 25.8447
7/24/2021 7:00:00 AM 6.5266 27.4996
7/24/2021 7:15:00 AM 6.5266 27.0384
7/24/2021 7:30:00 AM 6.5267 30.5586
7/24/2021 7:45:00 AM